Wetterdaten: Sonntag, 23.08.2020
Datum Zeit Temp. Aussen Temp. o. S. Temp +5cm Feuchte Auss Luftdruck Regen Sonnenschein Regendauer Solar Windben Empfang
23.08.2020 00:00 18,6 C 17,2 C 17,2 C 78 % 1016,0 hPa 0,0 l/m 0 min 0 min 0 W/m 6,4 km/h (2 Bft) 95,74 %
23.08.2020 00:02 18,6 C 17,2 C 17,2 C 79 % 1016,0 hPa 0,0 l/m 0 min 0 min 0 W/m 0,0 km/h (0 Bft) 96,97 %
23.08.2020 00:04 18,5 C 17,2 C 17,2 C 78 % 1016,0 hPa 0,0 l/m 0 min 0 min 0 W/m 0,0 km/h (0 Bft) 95,74 %
23.08.2020 00:07 18,5 C 17,2 C 17,2 C 78 % 1016,1 hPa 0,0 l/m 0 min 0 min 0 W/m 3,2 km/h (1 Bft) 95,06 %
23.08.2020 00:08 18,4 C 17,2 C 17,2 C 78 % 1016,1 hPa 0,0 l/m 0 min 0 min 0 W/m 0,0 km/h (0 Bft) 91,67 %
23.08.2020 00:10 18,4 C 17,2 C 17,2 C 78 % 1016,1 hPa 0,0 l/m 0 min 0 min 0 W/m 0,0 km/h (0 Bft) 95,74 %
23.08.2020 00:12 18,4 C 17,2 C 17,2 C 78 % 1016,2 hPa 0,0 l/m 0 min 0 min 0 W/m 0,0 km/h (0 Bft) 91,49 %
23.08.2020 00:14 18,4 C 17,2 C 17,2 C 78 % 1016,2 hPa 0,0 l/m 0 min 0 min 0 W/m 0,0 km/h (0 Bft) 93,62 %
23.08.2020 00:16 18,4 C 16,7 C 17,2 C 78 % 1016,2 hPa 0,0 l/m 0 min 0 min 0 W/m 0,0 km/h (0 Bft) 95,74 %
23.08.2020 00:18 18,3 C 16,7 C 17,2 C 78 % 1016,3 hPa 0,0 l/m 0 min 0 min 0 W/m 0,0 km/h (0 Bft) 95,65 %
23.08.2020 00:20 18,3 C 16,7 C 17,2 C 78 % 1016,3 hPa 0,0 l/m 0 min 0 min 0 W/m 9,7 km/h (2 Bft) 97,87 %
23.08.2020 00:22 18,3 C 16,7 C 16,7 C 78 % 1016,3 hPa 0,0 l/m 0 min 0 min 0 W/m 0,0 km/h (0 Bft) 100,00 %
23.08.2020 00:24 18,3 C 16,7 C 16,7 C 79 % 1016,3 hPa 0,0 l/m 0 min 0 min 0 W/m 0,0 km/h (0 Bft) 97,87 %
23.08.2020 00:26 18,2 C 16,7 C 16,7 C 79 % 1016,3 hPa 0,0 l/m 0 min 0 min 0 W/m 0,0 km/h (0 Bft) 97,87 %
23.08.2020 00:28 18,2 C 16,7 C 16,7 C 78 % 1016,3 hPa 0,0 l/m 0 min 0 min 0 W/m 3,2 km/h (1 Bft) 97,83 %
23.08.2020 00:30 18,2 C 16,7 C 16,7 C 79 % 1016,3 hPa 0,0 l/m 0 min 0 min 0 W/m 0,0 km/h (0 Bft) 97,87 %
23.08.2020 00:32 18,2 C 16,7 C 16,7 C 79 % 1016,2 hPa 0,0 l/m 0 min 0 min 0 W/m 3,2 km/h (1 Bft) 95,74 %
23.08.2020 00:34 18,2 C 16,7 C 16,7 C 79 % 1016,3 hPa 0,0 l/m 0 min 0 min 0 W/m 0,0 km/h (0 Bft) 95,74 %
23.08.2020 00:36 18,1 C 16,7 C 16,7 C 79 % 1016,3 hPa 0,0 l/m 0 min 0 min 0 W/m 0,0 km/h (0 Bft) 95,74 %
23.08.2020 00:38 18,1 C 16,7 C 16,7 C 79 % 1016,3 hPa 0,0 l/m 0 min 0 min 0 W/m 0,0 km/h (0 Bft) 100,00 %
23.08.2020 00:40 18,1 C 16,7 C 16,7 C 80 % 1016,3 hPa 0,0 l/m 0 min 0 min 0 W/m 3,2 km/h (1 Bft) 100,00 %
23.08.2020 00:42 18,1 C 16,7 C 16,7 C 80 % 1016,2 hPa 0,0 l/m 0 min 0 min 0 W/m 0,0 km/h (0 Bft) 100,00 %
23.08.2020 00:44 18,1 C 16,7 C 16,7 C 80 % 1016,2 hPa 0,0 l/m 0 min 0 min 0 W/m 0,0 km/h (0 Bft) 97,87 %
23.08.2020 00:46 18,1 C 16,7 C 16,7 C 80 % 1016,2 hPa 0,0 l/m 0 min 0 min 0 W/m 12,9 km/h (3 Bft) 100,00 %
23.08.2020 00:48 18,0 C 16,7 C 16,7 C 80 % 1016,2 hPa 0,0 l/m 0 min 0 min 0 W/m 12,9 km/h (3 Bft) 100,00 %
23.08.2020 00:50 18,0 C 16,7 C 16,7 C 80 % 1016,2 hPa 0,0 l/m 0 min 0 min 0 W/m 3,2 km/h (1 Bft) 100,00 %
23.08.2020 00:52 17,9 C 16,7 C 16,7 C 80 % 1016,2 hPa 0,0 l/m 0 min 0 min 0 W/m 16,1 km/h (3 Bft) 97,87 %
23.08.2020 00:54 17,9 C 16,7 C 16,7 C 80 % 1016,3 hPa 0,0 l/m 0 min 0 min 0 W/m 16,1 km/h (3 Bft) 100,00 %
23.08.2020 00:56 17,9 C 16,7 C 16,7 C 80 % 1016,2 hPa 0,0 l/m 0 min 0 min 0 W/m 3,2 km/h (1 Bft) 97,87 %
23.08.2020 00:58 17,9 C 16,7 C 16,7 C 81 % 1016,2 hPa 0,0 l/m 0 min 0 min 0 W/m 0,0 km/h (0 Bft) 100,00 %
23.08.2020 01:00 17,9 C 16,7 C 16,7 C 81 % 1016,1 hPa 0,0 l/m 0 min 0 min 0 W/m 3,2 km/h (1 Bft) 100,00 %
23.08.2020 01:02 17,9 C 16,7 C 16,7 C 80 % 1016,1 hPa 0,0 l/m 0 min 0 min 0 W/m 0,0 km/h (0 Bft) 100,00 %
23.08.2020 01:04 17,8 C 16,7 C 16,7 C 81 % 1016,0 hPa 0,0 l/m 0 min 0 min 0 W/m 16,1 km/h (3 Bft) 100,00 %
23.08.2020 01:06 17,8 C 16,7 C 16,7 C 81 % 1016,0 hPa 0,0 l/m 0 min 0 min 0 W/m 0,0 km/h (0 Bft) 100,00 %
23.08.2020 01:08 17,8 C 16,7 C 16,7 C 81 % 1016,0 hPa 0,0 l/m 0 min 0 min 0 W/m 0,0 km/h (0 Bft) 100,00 %
23.08.2020 01:10 17,8 C 16,7 C 16,7 C 81 % 1016,0 hPa 0,0 l/m 0 min 0 min 0 W/m 0,0 km/h (0 Bft) 100,00 %
23.08.2020 01:12 17,8 C 16,7 C 16,7 C 81 % 1016,1 hPa 0,0 l/m 0 min 0 min 0 W/m 3,2 km/h (1 Bft) 97,87 %
23.08.2020 01:14 17,8 C 16,7 C 16,7 C 81 % 1016,0 hPa 0,0 l/m 0 min 0 min 0 W/m 0,0 km/h (0 Bft) 100,00 %
23.08.2020 01:16 17,8 C 16,7 C 16,7 C 81 % 1016,0 hPa 0,0 l/m 0 min 0 min 0 W/m 0,0 km/h (0 Bft) 97,87 %
23.08.2020 01:18 17,7 C 16,7 C 16,7 C 81 % 1016,0 hPa 0,0 l/m 0 min 0 min 0 W/m 3,2 km/h (1 Bft) 100,00 %
23.08.2020 01:20 17,7 C 16,7 C 16,7 C 81 % 1015,9 hPa 0,0 l/m 0 min 0 min 0 W/m 6,4 km/h (2 Bft) 100,00 %
23.08.2020 01:22 17,7 C 16,7 C 16,7 C 81 % 1016,0 hPa 0,0 l/m 0 min 0 min 0 W/m 16,1 km/h (3 Bft) 100,00 %
23.08.2020 01:24 17,7 C 16,7 C 16,7 C 80 % 1016,0 hPa 0,0 l/m 0 min 0 min 0 W/m 29,0 km/h (5 Bft) 100,00 %
23.08.2020 01:26 17,6 C 16,7 C 16,7 C 80 % 1016,0 hPa 0,0 l/m 0 min 0 min 0 W/m 25,7 km/h (4 Bft) 100,00 %
23.08.2020 01:28 17,6 C 16,7 C 16,7 C 80 % 1015,9 hPa 0,0 l/m 0 min 0 min 0 W/m 3,2 km/h (1 Bft) 100,00 %
23.08.2020 01:30 17,6 C 16,7 C 16,7 C 80 % 1015,9 hPa 0,0 l/m 0 min 0 min 0 W/m 0,0 km/h (0 Bft) 100,00 %
23.08.2020 01:32 17,6 C 16,7 C 16,7 C 80 % 1015,9 hPa 0,0 l/m 0 min 0 min 0 W/m 0,0 km/h (0 Bft) 100,00 %
23.08.2020 01:34 17,6 C 16,7 C 16,7 C 80 % 1015,9 hPa 0,0 l/m 0 min 0 min 0 W/m 0,0 km/h (0 Bft) 100,00 %
23.08.2020 01:36 17,6 C 16,7 C 16,7 C 80 % 1015,9 hPa 0,0 l/m 0 min 0 min 0 W/m 0,0 km/h (0 Bft) 100,00 %
23.08.2020 01:38 17,6 C 16,7 C 16,1 C 80 % 1015,8 hPa 0,0 l/m 0 min 0 min 0 W/m 3,2 km/h (1 Bft) 100,00 %
23.08.2020 01:40 17,6 C 16,1 C 16,1 C 80 % 1015,8 hPa 0,0 l/m 0 min 0 min 0 W/m 3,2 km/h (1 Bft) 100,00 %
23.08.2020 01:42 17,6 C 16,1 C 16,1 C 80 % 1015,7 hPa 0,0 l/m 0 min 0 min 0 W/m 3,2 km/h (1 Bft) 100,00 %
23.08.2020 01:44 17,6 C 16,7 C 16,1 C 80 % 1015,7 hPa 0,0 l/m 0 min 0 min 0 W/m 16,1 km/h (3 Bft) 95,74 %
23.08.2020 01:46 17,5 C 16,7 C 16,1 C 80 % 1015,7 hPa 0,0 l/m 0 min 0 min 0 W/m 0,0 km/h (0 Bft) 97,83 %
23.08.2020 01:48 17,5 C 16,7 C 16,1 C 80 % 1015,7 hPa 0,0 l/m 0 min 0 min 0 W/m 3,2 km/h (1 Bft) 97,87 %
23.08.2020 01:50 17,5 C 16,7 C 16,1 C 80 % 1015,7 hPa 0,0 l/m 0 min 0 min 0 W/m 16,1 km/h (3 Bft) 97,87 %
23.08.2020 01:52 17,5 C 16,7 C 16,1 C 80 % 1015,7 hPa 0,0 l/m 0 min 0 min 0 W/m 3,2 km/h (1 Bft) 97,87 %
23.08.2020 01:54 17,5 C 16,7 C 16,1 C 80 % 1015,7 hPa 0,0 l/m 0 min 0 min 0 W/m 12,9 km/h (3 Bft) 97,87 %
23.08.2020 01:56 17,4 C 16,7 C 16,1 C 80 % 1015,6 hPa 0,0 l/m 0 min 0 min 0 W/m 6,4 km/h (2 Bft) 97,87 %
23.08.2020 01:58 17,4 C 16,7 C 16,1 C 80 % 1015,6 hPa 0,0 l/m 0 min 0 min 0 W/m 9,7 km/h (2 Bft) 97,83 %
23.08.2020 02:00 17,4 C 16,7 C 16,1 C 80 % 1015,7 hPa 0,0 l/m 0 min 0 min 0 W/m 0,0 km/h (0 Bft) 93,62 %
23.08.2020 02:02 17,4 C 16,7 C 16,1 C 79 % 1015,6 hPa 0,0 l/m 0 min 0 min 0 W/m 19,3 km/h (3 Bft) 97,92 %
23.08.2020 02:04 17,4 C 16,7 C 16,7 C 79 % 1015,5 hPa 0,0 l/m 0 min 0 min 0 W/m 19,3 km/h (3 Bft) 95,74 %
23.08.2020 02:06 17,4 C 16,7 C 16,7 C 79 % 1015,5 hPa 0,0 l/m 0 min 0 min 0 W/m 3,2 km/h (1 Bft) 97,87 %
23.08.2020 02:08 17,4 C 16,7 C 16,7 C 79 % 1015,6 hPa 0,0 l/m 0 min 0 min 0 W/m 0,0 km/h (0 Bft) 95,65 %
23.08.2020 02:10 17,4 C 16,7 C 16,7 C 79 % 1015,6 hPa 0,0 l/m 0 min 0 min 0 W/m 12,9 km/h (3 Bft) 95,74 %
23.08.2020 02:12 17,4 C 16,7 C 16,7 C 79 % 1015,6 hPa 0,0 l/m 0 min 0 min 0 W/m 12,9 km/h (3 Bft) 95,74 %
23.08.2020 02:14 17,4 C 16,7 C 16,7 C 79 % 1015,6 hPa 0,0 l/m 0 min 0 min 0 W/m 12,9 km/h (3 Bft) 97,87 %
23.08.2020 02:16 17,4 C 16,7 C 16,7 C 79 % 1015,5 hPa 0,0 l/m 0 min 0 min 0 W/m 12,9 km/h (3 Bft) 97,87 %
23.08.2020 02:18 17,4 C 16,7 C 16,7 C 79 % 1015,5 hPa 0,0 l/m 0 min 0 min 0 W/m 16,1 km/h (3 Bft) 93,62 %
23.08.2020 02:20 17,4 C 16,7 C 16,7 C 79 % 1015,6 hPa 0,0 l/m 0 min 0 min 0 W/m 3,2 km/h (1 Bft) 96,00 %
23.08.2020 02:22 17,5 C 16,7 C 16,7 C 78 % 1015,5 hPa 0,0 l/m 0 min 0 min 0 W/m 19,3 km/h (3 Bft) 95,65 %
23.08.2020 02:24 17,5 C 16,7 C 16,7 C 78 % 1015,4 hPa 0,0 l/m 0 min 0 min 0 W/m 12,9 km/h (3 Bft) 95,74 %
23.08.2020 02:26 17,5 C 16,7 C 16,7 C 78 % 1015,5 hPa 0,0 l/m 0 min 0 min 0 W/m 3,2 km/h (1 Bft) 95,74 %
23.08.2020 02:28 17,5 C 16,7 C 16,7 C 78 % 1015,5 hPa 0,0 l/m 0 min 0 min 0 W/m 3,2 km/h (1 Bft) 95,74 %
23.08.2020 02:30 17,5 C 16,7 C 16,7 C 78 % 1015,5 hPa 0,0 l/m 0 min 0 min 0 W/m 0,0 km/h (0 Bft) 97,87 %
23.08.2020 02:32 17,5 C 16,7 C 16,7 C 78 % 1015,5 hPa 0,0 l/m 0 min 0 min 0 W/m 16,1 km/h (3 Bft) 97,87 %
23.08.2020 02:34 17,5 C 16,7 C 16,7 C 78 % 1015,5 hPa 0,0 l/m 0 min 0 min 0 W/m 3,2 km/h (1 Bft) 95,65 %
23.08.2020 02:36 17,5 C 16,7 C 16,7 C 78 % 1015,5 hPa 0,0 l/m 0 min 0 min 0 W/m 12,9 km/h (3 Bft) 97,87 %
23.08.2020 02:38 17,6 C 16,7 C 16,7 C 78 % 1015,5 hPa 0,0 l/m 0 min 0 min 0 W/m 0,0 km/h (0 Bft) 97,87 %
23.08.2020 02:40 17,6 C 16,7 C 16,7 C 78 % 1015,6 hPa 0,0 l/m 0 min 0 min 0 W/m 3,2 km/h (1 Bft) 97,87 %
23.08.2020 02:42 17,6 C 16,7 C 16,7 C 78 % 1015,5 hPa 0,0 l/m 0 min 0 min 0 W/m 12,9 km/h (3 Bft) 95,74 %
23.08.2020 02:44 17,6 C 16,7 C 16,7 C 78 % 1015,5 hPa 0,0 l/m 0 min 0 min 0 W/m 3,2 km/h (1 Bft) 97,87 %
23.08.2020 02:46 17,6 C 16,7 C 16,7 C 78 % 1015,5 hPa 0,0 l/m 0 min 0 min 0 W/m 3,2 km/h (1 Bft) 95,65 %
23.08.2020 02:48 17,6 C 16,7 C 16,7 C 78 % 1015,5 hPa 0,0 l/m 0 min 0 min 0 W/m 0,0 km/h (0 Bft) 97,87 %
23.08.2020 02:50 17,6 C 16,7 C 16,7 C 78 % 1015,5 hPa 0,0 l/m 0 min 0 min 0 W/m 16,1 km/h (3 Bft) 95,74 %
23.08.2020 02:52 17,6 C 16,7 C 16,1 C 78 % 1015,5 hPa 0,0 l/m 0 min 0 min 0 W/m 3,2 km/h (1 Bft) 97,87 %
23.08.2020 02:54 17,6 C 16,7 C 16,1 C 78 % 1015,5 hPa 0,0 l/m 0 min 0 min 0 W/m 0,0 km/h (0 Bft) 97,87 %
23.08.2020 02:56 17,6 C 16,7 C 16,1 C 78 % 1015,5 hPa 0,0 l/m 0 min 0 min 0 W/m 3,2 km/h (1 Bft) 97,87 %
23.08.2020 02:58 17,6 C 16,7 C 16,1 C 78 % 1015,6 hPa 0,0 l/m 0 min 0 min 0 W/m 25,7 km/h (4 Bft) 97,83 %
23.08.2020 03:00 17,6 C 16,7 C 16,1 C 78 % 1015,6 hPa 0,0 l/m 0 min 0 min 0 W/m 6,4 km/h (2 Bft) 97,87 %
23.08.2020 03:02 17,5 C 16,7 C 16,1 C 78 % 1015,5 hPa 0,0 l/m 0 min 0 min 0 W/m 0,0 km/h (0 Bft) 97,87 %
23.08.2020 03:04 17,5 C 16,7 C 16,1 C 78 % 1015,6 hPa 0,0 l/m 0 min 0 min 0 W/m 22,5 km/h (4 Bft) 97,87 %
23.08.2020 03:06 17,5 C 16,7 C 16,1 C 78 % 1015,5 hPa 0,0 l/m 0 min 0 min 0 W/m 6,4 km/h (2 Bft) 97,87 %
23.08.2020 03:08 17,5 C 16,7 C 16,1 C 78 % 1015,5 hPa 0,0 l/m 0 min 0 min 0 W/m 6,4 km/h (2 Bft) 97,83 %
23.08.2020 03:10 17,5 C 16,7 C 16,1 C 78 % 1015,5 hPa 0,0 l/m 0 min 0 min 0 W/m 0,0 km/h (0 Bft) 95,74 %
23.08.2020 03:12 17,5 C 16,7 C 16,1 C 78 % 1015,5 hPa 0,0 l/m 0 min 0 min 0 W/m 3,2 km/h (1 Bft) 97,87 %
23.08.2020 03:14 17,5 C 16,7 C 16,7 C 78 % 1015,5 hPa 0,0 l/m 0 min 0 min 0 W/m 0,0 km/h (0 Bft) 100,00 %
23.08.2020 03:16 17,5 C 16,7 C 16,7 C 78 % 1015,5 hPa 0,0 l/m 0 min 0 min 0 W/m 6,4 km/h (2 Bft) 97,87 %
23.08.2020 03:18 17,5 C 16,7 C 16,7 C 78 % 1015,5 hPa 0,0 l/m 0 min 0 min 0 W/m 25,7 km/h (4 Bft) 97,87 %
23.08.2020 03:20 17,5 C 16,7 C 16,7 C 78 % 1015,6 hPa 0,0 l/m 0 min 0 min 0 W/m 0,0 km/h (0 Bft) 100,00 %
23.08.2020 03:22 17,5 C 16,7 C 16,1 C 78 % 1015,5 hPa 0,0 l/m 0 min 0 min 0 W/m 0,0 km/h (0 Bft) 93,62 %
23.08.2020 03:24 17,5 C 16,7 C 16,1 C 78 % 1015,5 hPa 0,0 l/m 0 min 0 min 0 W/m 0,0 km/h (0 Bft) 97,87 %
23.08.2020 03:26 17,5 C 16,7 C 16,7 C 78 % 1015,6 hPa 0,0 l/m 0 min 0 min 0 W/m 19,3 km/h (3 Bft) 97,87 %
23.08.2020 03:28 17,5 C 16,7 C 16,7 C 78 % 1015,5 hPa 0,0 l/m 0 min 0 min 0 W/m 3,2 km/h (1 Bft) 97,87 %
23.08.2020 03:30 17,5 C 16,7 C 16,7 C 78 % 1015,5 hPa 0,0 l/m 0 min 0 min 0 W/m 6,4 km/h (2 Bft) 97,87 %
23.08.2020 03:32 17,5 C 16,7 C 16,7 C 79 % 1015,5 hPa 0,0 l/m 0 min 0 min 0 W/m 6,4 km/h (2 Bft) 97,83 %
23.08.2020 03:34 17,5 C 16,7 C 16,7 C 79 % 1015,5 hPa 0,0 l/m 0 min 0 min 0 W/m 3,2 km/h (1 Bft) 97,87 %
23.08.2020 03:36 17,5 C 16,7 C 16,7 C 79 % 1015,4 hPa 0,0 l/m 0 min 0 min 0 W/m 6,4 km/h (2 Bft) 97,87 %
23.08.2020 03:38 17,6 C 16,7 C 16,7 C 79 % 1015,4 hPa 0,0 l/m 0 min 0 min 0 W/m 0,0 km/h (0 Bft) 97,87 %
23.08.2020 03:40 17,6 C 16,7 C 16,7 C 79 % 1015,4 hPa 0,0 l/m 0 min 0 min 0 W/m 16,1 km/h (3 Bft) 97,87 %
23.08.2020 03:42 17,6 C 16,7 C 16,7 C 79 % 1015,4 hPa 0,0 l/m 0 min 0 min 0 W/m 3,2 km/h (1 Bft) 97,87 %
23.08.2020 03:44 17,6 C 16,7 C 16,7 C 79 % 1015,4 hPa 0,0 l/m 0 min 0 min 0 W/m 0,0 km/h (0 Bft) 97,83 %
23.08.2020 03:46 17,6 C 16,7 C 16,7 C 79 % 1015,4 hPa 0,0 l/m 0 min 0 min 0 W/m 3,2 km/h (1 Bft) 97,87 %
23.08.2020 03:48 17,6 C 16,7 C 16,7 C 79 % 1015,4 hPa 0,0 l/m 0 min 0 min 0 W/m 3,2 km/h (1 Bft) 97,87 %
23.08.2020 03:50 17,6 C 16,7 C 16,7 C 79 % 1015,4 hPa 0,0 l/m 0 min 0 min 0 W/m 0,0 km/h (0 Bft) 95,74 %
23.08.2020 03:52 17,6 C 16,7 C 16,7 C 79 % 1015,5 hPa 0,0 l/m 0 min 0 min 0 W/m 0,0 km/h (0 Bft) 97,87 %
23.08.2020 03:54 17,6 C 16,7 C 16,7 C 79 % 1015,5 hPa 0,0 l/m 0 min 0 min 0 W/m 6,4 km/h (2 Bft) 97,87 %
23.08.2020 03:56 17,6 C 16,7 C 16,7 C 79 % 1015,5 hPa 0,0 l/m 0 min 0 min 0 W/m 3,2 km/h (1 Bft) 97,83 %
23.08.2020 03:58 17,6 C 16,7 C 16,7 C 79 % 1015,5 hPa 0,0 l/m 0 min 0 min 0 W/m 3,2 km/h (1 Bft) 97,87 %
23.08.2020 04:00 17,6 C 16,7 C 16,7 C 79 % 1015,5 hPa 0,0 l/m 0 min 0 min 0 W/m 0,0 km/h (0 Bft) 97,87 %
23.08.2020 04:02 17,6 C 16,7 C 16,7 C 79 % 1015,5 hPa 0,0 l/m 0 min 0 min 0 W/m 0,0 km/h (0 Bft) 96,00 %
23.08.2020 04:04 17,6 C 16,7 C 16,1 C 79 % 1015,5 hPa 0,0 l/m 0 min 0 min 0 W/m 0,0 km/h (0 Bft) 97,87 %
23.08.2020 04:06 17,6 C 16,7 C 16,1 C 79 % 1015,5 hPa 0,0 l/m 0 min 0 min 0 W/m 9,7 km/h (2 Bft) 97,87 %
23.08.2020 04:08 17,6 C 16,7 C 16,1 C 79 % 1015,5 hPa 0,0 l/m 0 min 0 min 0 W/m 9,7 km/h (2 Bft) 97,87 %
23.08.2020 04:10 17,6 C 16,1 C 16,1 C 79 % 1015,4 hPa 0,0 l/m 0 min 0 min 0 W/m 0,0 km/h (0 Bft) 97,83 %
23.08.2020 04:12 17,6 C 16,1 C 16,1 C 79 % 1015,5 hPa 0,0 l/m 0 min 0 min 0 W/m 0,0 km/h (0 Bft) 97,87 %
23.08.2020 04:14 17,6 C 16,1 C 16,1 C 80 % 1015,5 hPa 0,0 l/m 0 min 0 min 0 W/m 3,2 km/h (1 Bft) 100,00 %
23.08.2020 04:16 17,5 C 16,7 C 16,7 C 80 % 1015,5 hPa 0,0 l/m 0 min 0 min 0 W/m 3,2 km/h (1 Bft) 100,00 %
23.08.2020 04:18 17,5 C 16,7 C 16,1 C 80 % 1015,4 hPa 0,0 l/m 0 min 0 min 0 W/m 0,0 km/h (0 Bft) 93,62 %
23.08.2020 04:20 17,5 C 16,7 C 16,7 C 80 % 1015,4 hPa 0,0 l/m 0 min 0 min 0 W/m 3,2 km/h (1 Bft) 100,00 %
23.08.2020 04:22 17,5 C 16,7 C 16,7 C 80 % 1015,4 hPa 0,0 l/m 0 min 0 min 0 W/m 16,1 km/h (3 Bft) 100,00 %
23.08.2020 04:24 17,5 C 16,7 C 16,1 C 80 % 1015,4 hPa 0,0 l/m 0 min 0 min 0 W/m 3,2 km/h (1 Bft) 100,00 %
23.08.2020 04:26 17,5 C 16,7 C 16,1 C 80 % 1015,4 hPa 0,0 l/m 0 min 0 min 0 W/m 0,0 km/h (0 Bft) 97,87 %
23.08.2020 04:28 17,4 C 16,7 C 16,1 C 80 % 1015,4 hPa 0,0 l/m 0 min 0 min 0 W/m 3,2 km/h (1 Bft) 97,83 %
23.08.2020 04:30 17,4 C 16,7 C 16,1 C 80 % 1015,4 hPa 0,0 l/m 0 min 0 min 0 W/m 0,0 km/h (0 Bft) 97,87 %
23.08.2020 04:32 17,4 C 16,7 C 16,1 C 80 % 1015,4 hPa 0,0 l/m 0 min 0 min 0 W/m 0,0 km/h (0 Bft) 97,92 %
23.08.2020 04:34 17,4 C 16,7 C 16,1 C 80 % 1015,4 hPa 0,0 l/m 0 min 0 min 0 W/m 0,0 km/h (0 Bft) 97,87 %
23.08.2020 04:36 17,4 C 16,7 C 16,1 C 80 % 1015,4 hPa 0,0 l/m 0 min 0 min 0 W/m 12,9 km/h (3 Bft) 93,62 %
23.08.2020 04:38 17,4 C 16,7 C 16,7 C 80 % 1015,4 hPa 0,0 l/m 0 min 0 min 0 W/m 3,2 km/h (1 Bft) 97,87 %
23.08.2020 04:40 17,4 C 16,7 C 16,7 C 80 % 1015,4 hPa 0,0 l/m 0 min 0 min 0 W/m 0,0 km/h (0 Bft) 97,83 %
23.08.2020 04:42 17,4 C 16,7 C 16,7 C 80 % 1015,4 hPa 0,0 l/m 0 min 0 min 0 W/m 3,2 km/h (1 Bft) 97,87 %
23.08.2020 04:44 17,4 C 16,7 C 16,7 C 80 % 1015,4 hPa 0,0 l/m 0 min 0 min 0 W/m 22,5 km/h (4 Bft) 97,87 %
23.08.2020 04:46 17,4 C 16,7 C 16,1 C 80 % 1015,4 hPa 0,0 l/m 0 min 0 min 0 W/m 0,0 km/h (0 Bft) 97,87 %
23.08.2020 04:48 17,4 C 16,7 C 16,1 C 80 % 1015,4 hPa 0,0 l/m 0 min 0 min 0 W/m 0,0 km/h (0 Bft) 97,87 %
23.08.2020 04:50 17,4 C 16,1 C 16,1 C 80 % 1015,3 hPa 0,0 l/m 0 min 0 min 0 W/m 3,2 km/h (1 Bft) 97,87 %
23.08.2020 04:52 17,4 C 16,1 C 16,1 C 80 % 1015,4 hPa 0,0 l/m 0 min 0 min 0 W/m 3,2 km/h (1 Bft) 97,83 %
23.08.2020 04:54 17,4 C 16,1 C 16,1 C 80 % 1015,4 hPa 0,0 l/m 0 min 0 min 0 W/m 9,7 km/h (2 Bft) 95,74 %
23.08.2020 04:56 17,4 C 16,1 C 16,1 C 80 % 1015,4 hPa 0,0 l/m 0 min 0 min 0 W/m 0,0 km/h (0 Bft) 95,74 %
23.08.2020 04:58 17,4 C 16,1 C 16,1 C 80 % 1015,4 hPa 0,0 l/m 0 min 0 min 0 W/m 3,2 km/h (1 Bft) 95,74 %
23.08.2020 05:00 17,4 C 16,1 C 16,1 C 80 % 1015,4 hPa 0,0 l/m 0 min 0 min 0 W/m 0,0 km/h (0 Bft) 97,87 %
23.08.2020 05:02 17,4 C 16,1 C 16,1 C 80 % 1015,4 hPa 0,0 l/m 0 min 0 min 0 W/m 0,0 km/h (0 Bft) 95,83 %
23.08.2020 05:04 17,3 C 16,1 C 16,1 C 80 % 1015,4 hPa 0,0 l/m 0 min 0 min 0 W/m 0,0 km/h (0 Bft) 95,65 %
23.08.2020 05:06 17,3 C 16,1 C 16,1 C 81 % 1015,4 hPa 0,0 l/m 0 min 0 min 0 W/m 3,2 km/h (1 Bft) 95,74 %
23.08.2020 05:08 17,3 C 16,1 C 16,1 C 81 % 1015,4 hPa 0,0 l/m 0 min 0 min 0 W/m 0,0 km/h (0 Bft) 97,87 %
23.08.2020 05:10 17,3 C 16,1 C 16,1 C 81 % 1015,4 hPa 0,0 l/m 0 min 0 min 0 W/m 0,0 km/h (0 Bft) 93,62 %
23.08.2020 05:12 17,3 C 16,1 C 16,1 C 81 % 1015,4 hPa 0,0 l/m 0 min 0 min 0 W/m 0,0 km/h (0 Bft) 93,62 %
23.08.2020 05:14 17,3 C 16,1 C 16,1 C 81 % 1015,4 hPa 0,0 l/m 0 min 0 min 0 W/m 12,9 km/h (3 Bft) 97,87 %
23.08.2020 05:16 17,3 C 16,1 C 16,1 C 81 % 1015,4 hPa 0,0 l/m 0 min 0 min 0 W/m 12,9 km/h (3 Bft) 97,83 %
23.08.2020 05:18 17,3 C 16,7 C 16,1 C 81 % 1015,4 hPa 0,0 l/m 0 min 0 min 0 W/m 0,0 km/h (0 Bft) 97,87 %
23.08.2020 05:20 17,3 C 16,7 C 16,1 C 81 % 1015,4 hPa 0,0 l/m 0 min 0 min 0 W/m 3,2 km/h (1 Bft) 97,87 %
23.08.2020 05:22 17,3 C 16,7 C 16,1 C 81 % 1015,4 hPa 0,0 l/m 0 min 0 min 0 W/m 12,9 km/h (3 Bft) 95,74 %
23.08.2020 05:24 17,3 C 16,7 C 16,1 C 81 % 1015,4 hPa 0,0 l/m 0 min 0 min 0 W/m 3,2 km/h (1 Bft) 95,74 %
23.08.2020 05:26 17,3 C 16,1 C 16,1 C 82 % 1015,4 hPa 0,0 l/m 0 min 0 min 0 W/m 3,2 km/h (1 Bft) 97,83 %
23.08.2020 05:28 17,3 C 16,1 C 16,1 C 82 % 1015,3 hPa 0,0 l/m 0 min 0 min 0 W/m 3,2 km/h (1 Bft) 97,87 %
23.08.2020 05:30 17,3 C 16,1 C 16,1 C 82 % 1015,3 hPa 0,0 l/m 0 min 0 min 0 W/m 0,0 km/h (0 Bft) 97,87 %
23.08.2020 05:32 17,3 C 16,1 C 16,1 C 82 % 1015,3 hPa 0,0 l/m 0 min 0 min 0 W/m 12,9 km/h (3 Bft) 93,62 %
23.08.2020 05:34 17,3 C 16,1 C 16,1 C 82 % 1015,3 hPa 0,0 l/m 0 min 2 min 0 W/m 0,0 km/h (0 Bft) 97,87 %
23.08.2020 05:36 17,3 C 15,6 C 16,1 C 82 % 1015,3 hPa 0,0 l/m 0 min 2 min 0 W/m 0,0 km/h (0 Bft) 97,87 %
23.08.2020 05:38 17,3 C 15,6 C 15,6 C 83 % 1015,3 hPa 0,0 l/m 0 min 2 min 0 W/m 12,9 km/h (3 Bft) 93,48 %
23.08.2020 05:40 17,3 C 15,6 C 15,6 C 83 % 1015,3 hPa 0,0 l/m 0 min 2 min 0 W/m 3,2 km/h (1 Bft) 97,87 %
23.08.2020 05:42 17,3 C 15,6 C 15,6 C 83 % 1015,2 hPa 0,0 l/m 0 min 2 min 0 W/m 0,0 km/h (0 Bft) 97,87 %
23.08.2020 05:44 17,3 C 15,6 C 15,6 C 84 % 1015,3 hPa 0,0 l/m 0 min 2 min 0 W/m 12,9 km/h (3 Bft) 97,87 %
23.08.2020 05:46 17,2 C 15,6 C 15,6 C 84 % 1015,2 hPa 0,0 l/m 0 min 0 min 0 W/m 3,2 km/h (1 Bft) 97,87 %
23.08.2020 05:48 17,2 C 15,6 C 15,6 C 84 % 1015,3 hPa 0,0 l/m 0 min 0 min 0 W/m 3,2 km/h (1 Bft) 97,87 %
23.08.2020 05:50 17,2 C 16,1 C 15,6 C 84 % 1015,2 hPa 0,0 l/m 0 min 0 min 0 W/m 0,0 km/h (0 Bft) 97,83 %
23.08.2020 05:52 17,2 C 16,1 C 15,6 C 84 % 1015,2 hPa 0,0 l/m 0 min 0 min 0 W/m 3,2 km/h (1 Bft) 97,87 %
23.08.2020 05:54 17,2 C 15,6 C 15,6 C 84 % 1015,2 hPa 0,0 l/m 0 min 0 min 0 W/m 3,2 km/h (1 Bft) 95,74 %
23.08.2020 05:56 17,2 C 15,6 C 15,6 C 84 % 1015,2 hPa 0,0 l/m 0 min 0 min 0 W/m 3,2 km/h (1 Bft) 97,87 %
23.08.2020 05:58 17,1 C 15,6 C 15,6 C 84 % 1015,2 hPa 0,0 l/m 0 min 0 min 0 W/m 16,1 km/h (3 Bft) 95,74 %
23.08.2020 06:00 17,1 C 16,1 C 15,6 C 84 % 1015,2 hPa 0,0 l/m 0 min 0 min 0 W/m 16,1 km/h (3 Bft) 97,87 %
23.08.2020 06:02 17,1 C 16,1 C 15,6 C 85 % 1015,2 hPa 0,0 l/m 0 min 0 min 0 W/m 16,1 km/h (3 Bft) 97,87 %
23.08.2020 06:04 17,1 C 16,1 C 15,6 C 85 % 1015,2 hPa 0,0 l/m 0 min 0 min 0 W/m 16,1 km/h (3 Bft) 100,00 %
23.08.2020 06:08 17,1 C 16,1 C 15,6 C 85 % 1015,2 hPa 0,0 l/m 0 min 0 min 0 W/m 3,2 km/h (1 Bft) 100,00 %
23.08.2020 06:10 17,1 C 16,1 C 15,6 C 85 % 1015,3 hPa 0,0 l/m 0 min 0 min 0 W/m 3,2 km/h (1 Bft) 97,87 %
23.08.2020 06:12 17,1 C 16,1 C 15,6 C 85 % 1015,3 hPa 0,0 l/m 0 min 0 min 0 W/m 0,0 km/h (0 Bft) 100,00 %
23.08.2020 06:14 17,0 C 16,1 C 15,6 C 85 % 1015,3 hPa 0,0 l/m 0 min 0 min 0 W/m 0,0 km/h (0 Bft) 100,00 %
23.08.2020 06:16 17,0 C 16,1 C 15,6 C 85 % 1015,3 hPa 0,0 l/m 0 min 0 min 0 W/m 3,2 km/h (1 Bft) 100,00 %
23.08.2020 06:18 17,0 C 15,6 C 15,6 C 85 % 1015,3 hPa 0,0 l/m 0 min 0 min 0 W/m 12,9 km/h (3 Bft) 97,87 %
23.08.2020 06:20 17,0 C 15,0 C 15,6 C 85 % 1015,2 hPa 0,0 l/m 0 min 2 min 0 W/m 3,2 km/h (1 Bft) 100,00 %
23.08.2020 06:22 17,0 C 15,0 C 15,6 C 86 % 1015,3 hPa 0,0 l/m 0 min 2 min 0 W/m 3,2 km/h (1 Bft) 100,00 %
23.08.2020 06:24 17,0 C 15,0 C 15,6 C 86 % 1015,3 hPa 0,0 l/m 0 min 0 min 0 W/m 6,4 km/h (2 Bft) 100,00 %
23.08.2020 06:26 16,9 C 15,0 C 15,6 C 86 % 1015,3 hPa 0,0 l/m 0 min 0 min 0 W/m 3,2 km/h (1 Bft) 100,00 %
23.08.2020 06:28 16,9 C 15,0 C 15,6 C 86 % 1015,3 hPa 0,0 l/m 0 min 0 min 0 W/m 3,2 km/h (1 Bft) 100,00 %
23.08.2020 06:30 16,9 C 15,0 C 15,6 C 86 % 1015,3 hPa 0,0 l/m 0 min 0 min 0 W/m 0,0 km/h (0 Bft) 100,00 %
23.08.2020 06:32 16,9 C 15,0 C 15,6 C 86 % 1015,3 hPa 0,0 l/m 0 min 0 min 0 W/m 0,0 km/h (0 Bft) 100,00 %
23.08.2020 06:34 16,9 C 15,6 C 15,6 C 86 % 1015,3 hPa 0,0 l/m 0 min 0 min 0 W/m 0,0 km/h (0 Bft) 100,00 %
23.08.2020 06:36 16,9 C 15,6 C 15,6 C 87 % 1015,4 hPa 0,0 l/m 0 min 0 min 0 W/m 0,0 km/h (0 Bft) 100,00 %
23.08.2020 06:38 16,8 C 15,6 C 15,6 C 87 % 1015,4 hPa 0,0 l/m 0 min 2 min 0 W/m 3,2 km/h (1 Bft) 100,00 %
23.08.2020 06:40 16,8 C 15,0 C 15,0 C 87 % 1015,4 hPa 0,0 l/m 0 min 2 min 0 W/m 12,9 km/h (3 Bft) 97,87 %
23.08.2020 06:42 16,8 C 14,4 C 15,0 C 87 % 1015,3 hPa 0,0 l/m 0 min 2 min 0 W/m 6,4 km/h (2 Bft) 100,00 %
23.08.2020 06:44 16,8 C 14,4 C 15,0 C 87 % 1015,3 hPa 0,0 l/m 0 min 2 min 0 W/m 6,4 km/h (2 Bft) 100,00 %
23.08.2020 06:46 16,8 C 14,4 C 15,0 C 88 % 1015,3 hPa 0,0 l/m 0 min 2 min 0 W/m 3,2 km/h (1 Bft) 100,00 %
23.08.2020 06:48 16,8 C 14,4 C 15,0 C 87 % 1015,3 hPa 0,0 l/m 0 min 0 min 0 W/m 0,0 km/h (0 Bft) 100,00 %
23.08.2020 06:50 16,7 C 14,4 C 15,0 C 88 % 1015,3 hPa 0,0 l/m 0 min 0 min 5 W/m 3,2 km/h (1 Bft) 97,87 %
23.08.2020 06:52 16,7 C 15,0 C 15,0 C 88 % 1015,3 hPa 0,0 l/m 0 min 2 min 6 W/m 3,2 km/h (1 Bft) 97,87 %
23.08.2020 06:54 16,7 C 15,0 C 15,0 C 88 % 1015,3 hPa 0,0 l/m 0 min 0 min 7 W/m 3,2 km/h (1 Bft) 93,48 %
23.08.2020 06:56 16,7 C 15,0 C 15,0 C 88 % 1015,3 hPa 0,0 l/m 0 min 0 min 8 W/m 3,2 km/h (1 Bft) 95,74 %
23.08.2020 06:58 16,6 C 15,0 C 15,0 C 88 % 1015,4 hPa 0,0 l/m 0 min 0 min 10 W/m 0,0 km/h (0 Bft) 95,74 %
23.08.2020 07:00 16,6 C 15,0 C 15,0 C 88 % 1015,4 hPa 0,0 l/m 0 min 0 min 11 W/m 3,2 km/h (1 Bft) 97,87 %
23.08.2020 07:02 16,6 C 15,0 C 15,0 C 88 % 1015,4 hPa 0,0 l/m 0 min 0 min 11 W/m 19,3 km/h (3 Bft) 97,87 %
23.08.2020 07:04 16,6 C 15,6 C 15,0 C 89 % 1015,4 hPa 0,0 l/m 0 min 0 min 12 W/m 16,1 km/h (3 Bft) 95,74 %
23.08.2020 07:06 16,6 C 15,6 C 15,0 C 89 % 1015,4 hPa 0,0 l/m 0 min 0 min 12 W/m 12,9 km/h (3 Bft) 97,83 %
23.08.2020 07:08 16,6 C 15,6 C 15,0 C 89 % 1015,5 hPa 0,0 l/m 0 min 0 min 14 W/m 3,2 km/h (1 Bft) 95,74 %
23.08.2020 07:10 16,5 C 15,6 C 15,0 C 89 % 1015,5 hPa 0,0 l/m 0 min 0 min 17 W/m 6,4 km/h (2 Bft) 97,87 %
23.08.2020 07:12 16,5 C 15,6 C 15,0 C 89 % 1015,5 hPa 0,0 l/m 0 min 0 min 23 W/m 19,3 km/h (3 Bft) 97,87 %
23.08.2020 07:14 16,4 C 15,6 C 15,0 C 89 % 1015,5 hPa 0,0 l/m 0 min 0 min 26 W/m 0,0 km/h (0 Bft) 95,74 %
23.08.2020 07:16 16,4 C 15,6 C 15,0 C 89 % 1015,5 hPa 0,0 l/m 0 min 0 min 26 W/m 6,4 km/h (2 Bft) 93,62 %
23.08.2020 07:18 16,4 C 15,6 C 15,0 C 89 % 1015,6 hPa 0,0 l/m 0 min 0 min 20 W/m 22,5 km/h (4 Bft) 93,48 %
23.08.2020 07:20 16,4 C 15,6 C 15,0 C 89 % 1015,5 hPa 0,0 l/m 0 min 0 min 24 W/m 3,2 km/h (1 Bft) 95,74 %
23.08.2020 07:22 16,4 C 15,6 C 15,0 C 89 % 1015,6 hPa 0,0 l/m 0 min 0 min 29 W/m 3,2 km/h (1 Bft) 95,74 %
23.08.2020 07:24 16,4 C 15,6 C 15,0 C 89 % 1015,6 hPa 0,0 l/m 0 min 0 min 28 W/m 6,4 km/h (2 Bft) 95,74 %
23.08.2020 07:26 16,4 C 15,6 C 15,0 C 89 % 1015,6 hPa 0,0 l/m 0 min 0 min 22 W/m 0,0 km/h (0 Bft) 93,62 %
23.08.2020 07:28 16,4 C 15,6 C 15,0 C 89 % 1015,6 hPa 0,0 l/m 0 min 0 min 24 W/m 6,4 km/h (2 Bft) 95,65 %
23.08.2020 07:30 16,4 C 15,6 C 15,0 C 89 % 1015,6 hPa 0,0 l/m 0 min 0 min 29 W/m 6,4 km/h (2 Bft) 95,74 %
23.08.2020 07:32 16,4 C 15,6 C 15,0 C 89 % 1015,5 hPa 0,0 l/m 0 min 0 min 35 W/m 3,2 km/h (1 Bft) 95,74 %
23.08.2020 07:34 16,4 C 15,6 C 15,0 C 89 % 1015,6 hPa 0,0 l/m 0 min 0 min 36 W/m 0,0 km/h (0 Bft) 91,49 %
23.08.2020 07:36 16,4 C 15,6 C 15,6 C 89 % 1015,6 hPa 0,0 l/m 0 min 0 min 38 W/m 19,3 km/h (3 Bft) 96,15 %
23.08.2020 07:38 16,4 C 15,6 C 15,6 C 89 % 1015,6 hPa 0,0 l/m 0 min 0 min 39 W/m 19,3 km/h (3 Bft) 95,24 %
23.08.2020 07:40 16,4 C 15,6 C 15,6 C 89 % 1015,7 hPa 0,0 l/m 0 min 0 min 47 W/m 9,7 km/h (2 Bft) 95,65 %
23.08.2020 07:42 16,4 C 16,1 C 15,6 C 89 % 1015,6 hPa 0,0 l/m 0 min 0 min 54 W/m 16,1 km/h (3 Bft) 95,74 %
23.08.2020 07:44 16,4 C 16,1 C 15,6 C 89 % 1015,6 hPa 0,0 l/m 0 min 0 min 45 W/m 16,1 km/h (3 Bft) 93,62 %
23.08.2020 07:46 16,4 C 16,1 C 15,6 C 90 % 1015,6 hPa 0,0 l/m 0 min 0 min 37 W/m 16,1 km/h (3 Bft) 95,74 %
23.08.2020 07:48 16,4 C 15,6 C 15,6 C 90 % 1015,6 hPa 0,0 l/m 0 min 0 min 32 W/m 12,9 km/h (3 Bft) 95,74 %
23.08.2020 07:50 16,4 C 15,6 C 15,6 C 89 % 1015,7 hPa 0,0 l/m 0 min 0 min 34 W/m 9,7 km/h (2 Bft) 91,49 %
23.08.2020 07:52 16,4 C 15,6 C 15,6 C 89 % 1015,7 hPa 0,0 l/m 0 min 0 min 38 W/m 19,3 km/h (3 Bft) 93,48 %
23.08.2020 07:54 16,4 C 15,6 C 15,6 C 89 % 1015,7 hPa 0,0 l/m 0 min 0 min 40 W/m 3,2 km/h (1 Bft) 95,74 %
23.08.2020 07:56 16,4 C 15,6 C 15,6 C 89 % 1015,7 hPa 0,0 l/m 0 min 0 min 39 W/m 19,3 km/h (3 Bft) 97,87 %
23.08.2020 07:58 16,4 C 15,6 C 15,6 C 89 % 1015,6 hPa 0,0 l/m 0 min 0 min 34 W/m 12,9 km/h (3 Bft) 97,87 %
23.08.2020 08:00 16,4 C 15,6 C 15,6 C 89 % 1015,6 hPa 0,0 l/m 0 min 0 min 29 W/m 0,0 km/h (0 Bft) 93,62 %
23.08.2020 08:02 16,4 C 15,6 C 15,6 C 89 % 1015,6 hPa 0,0 l/m 0 min 0 min 25 W/m 3,2 km/h (1 Bft) 100,00 %
23.08.2020 08:04 16,4 C 15,6 C 15,0 C 89 % 1015,7 hPa 0,0 l/m 0 min 0 min 21 W/m 6,4 km/h (2 Bft) 98,04 %
23.08.2020 08:06 16,4 C 15,6 C 15,0 C 89 % 1015,7 hPa 0,0 l/m 0 min 0 min 22 W/m 9,7 km/h (2 Bft) 97,87 %
23.08.2020 08:08 16,4 C 15,6 C 15,0 C 89 % 1015,7 hPa 0,0 l/m 0 min 0 min 27 W/m 3,2 km/h (1 Bft) 97,87 %
23.08.2020 08:10 16,4 C 15,6 C 15,0 C 89 % 1015,7 hPa 0,0 l/m 0 min 0 min 30 W/m 0,0 km/h (0 Bft) 97,87 %
23.08.2020 08:12 16,4 C 15,6 C 15,0 C 89 % 1015,7 hPa 0,0 l/m 0 min 0 min 32 W/m 19,3 km/h (3 Bft) 97,87 %
23.08.2020 08:14 16,4 C 15,6 C 15,6 C 89 % 1015,8 hPa 0,0 l/m 0 min 0 min 33 W/m 9,7 km/h (2 Bft) 95,65 %
23.08.2020 08:16 16,4 C 15,6 C 15,6 C 89 % 1015,8 hPa 0,0 l/m 0 min 0 min 34 W/m 6,4 km/h (2 Bft) 95,74 %
23.08.2020 08:18 16,4 C 16,1 C 15,6 C 89 % 1015,8 hPa 0,0 l/m 0 min 0 min 35 W/m 16,1 km/h (3 Bft) 97,87 %
23.08.2020 08:20 16,4 C 16,1 C 15,6 C 90 % 1015,7 hPa 0,0 l/m 0 min 0 min 36 W/m 22,5 km/h (4 Bft) 97,87 %
23.08.2020 08:22 16,4 C 16,1 C 15,6 C 90 % 1015,7 hPa 0,0 l/m 0 min 0 min 37 W/m 19,3 km/h (3 Bft) 97,87 %
23.08.2020 08:24 16,4 C 16,1 C 15,6 C 89 % 1015,7 hPa 0,0 l/m 0 min 0 min 38 W/m 29,0 km/h (5 Bft) 97,87 %
23.08.2020 08:26 16,4 C 16,1 C 15,6 C 89 % 1015,7 hPa 0,0 l/m 0 min 0 min 40 W/m 12,9 km/h (3 Bft) 94,55 %
23.08.2020 08:28 16,5 C 16,1 C 15,6 C 90 % 1015,7 hPa 0,0 l/m 0 min 0 min 42 W/m 16,1 km/h (3 Bft) 97,87 %
23.08.2020 08:30 16,5 C 16,1 C 15,6 C 90 % 1015,8 hPa 0,0 l/m 0 min 0 min 44 W/m 3,2 km/h (1 Bft) 97,87 %
23.08.2020 08:32 16,6 C 16,1 C 15,6 C 90 % 1015,8 hPa 0,0 l/m 0 min 0 min 46 W/m 0,0 km/h (0 Bft) 97,22 %
23.08.2020 08:34 16,6 C 16,1 C 15,6 C 90 % 1015,9 hPa 0,0 l/m 0 min 0 min 47 W/m 12,9 km/h (3 Bft) 97,87 %
23.08.2020 08:36 16,6 C 16,1 C 15,6 C 90 % 1015,7 hPa 0,0 l/m 0 min 0 min 50 W/m 16,1 km/h (3 Bft) 97,83 %
23.08.2020 08:38 16,6 C 16,7 C 16,1 C 89 % 1015,8 hPa 0,0 l/m 0 min 0 min 52 W/m 9,7 km/h (2 Bft) 97,87 %
23.08.2020 08:40 16,7 C 16,7 C 16,1 C 89 % 1015,8 hPa 0,0 l/m 0 min 0 min 57 W/m 3,2 km/h (1 Bft) 97,87 %
23.08.2020 08:42 16,7 C 16,7 C 16,1 C 89 % 1015,8 hPa 0,0 l/m 0 min 0 min 67 W/m 0,0 km/h (0 Bft) 97,87 %
23.08.2020 08:44 16,7 C 16,7 C 16,1 C 89 % 1015,8 hPa 0,0 l/m 0 min 0 min 81 W/m 19,3 km/h (3 Bft) 97,87 %
23.08.2020 08:46 16,8 C 16,7 C 16,1 C 89 % 1015,8 hPa 0,0 l/m 0 min 0 min 74 W/m 6,4 km/h (2 Bft) 93,48 %
23.08.2020 08:48 16,8 C 16,7 C 16,1 C 89 % 1015,8 hPa 0,0 l/m 0 min 0 min 56 W/m 3,2 km/h (1 Bft) 97,87 %
23.08.2020 08:50 16,8 C 16,7 C 16,1 C 88 % 1015,8 hPa 0,0 l/m 2 min 0 min 170 W/m 3,2 km/h (1 Bft) 97,87 %
23.08.2020 08:52 16,8 C 17,8 C 16,1 C 88 % 1015,8 hPa 0,0 l/m 2 min 0 min 320 W/m 19,3 km/h (3 Bft) 97,87 %
23.08.2020 08:54 16,8 C 17,8 C 16,1 C 87 % 1015,9 hPa 0,0 l/m 2 min 0 min 318 W/m 16,1 km/h (3 Bft) 97,87 %
23.08.2020 08:56 16,9 C 18,9 C 16,1 C 86 % 1015,9 hPa 0,0 l/m 0 min 0 min 108 W/m 6,4 km/h (2 Bft) 97,87 %
23.08.2020 08:58 16,9 C 18,9 C 16,7 C 86 % 1016,0 hPa 0,0 l/m 2 min 0 min 336 W/m 12,9 km/h (3 Bft) 97,83 %
23.08.2020 09:00 17,1 C 19,4 C 16,7 C 86 % 1015,9 hPa 0,0 l/m 2 min 0 min 348 W/m 12,9 km/h (3 Bft) 100,00 %
23.08.2020 09:02 17,1 C 18,3 C 16,7 C 86 % 1016,0 hPa 0,0 l/m 2 min 0 min 250 W/m 16,1 km/h (3 Bft) 100,00 %
23.08.2020 09:04 17,2 C 17,8 C 16,7 C 85 % 1015,9 hPa 0,0 l/m 0 min 0 min 111 W/m 19,3 km/h (3 Bft) 100,00 %
23.08.2020 09:06 17,2 C 17,8 C 16,7 C 84 % 1016,0 hPa 0,0 l/m 0 min 0 min 100 W/m 12,9 km/h (3 Bft) 97,92 %
23.08.2020 09:08 17,3 C 18,3 C 16,7 C 84 % 1016,0 hPa 0,0 l/m 0 min 0 min 136 W/m 3,2 km/h (1 Bft) 97,87 %
23.08.2020 09:10 17,3 C 19,4 C 16,7 C 83 % 1015,9 hPa 0,0 l/m 2 min 0 min 271 W/m 0,0 km/h (0 Bft) 100,00 %
23.08.2020 09:12 17,4 C 19,4 C 16,7 C 83 % 1015,9 hPa 0,0 l/m 2 min 0 min 349 W/m 6,4 km/h (2 Bft) 100,00 %
23.08.2020 09:14 17,6 C 20,0 C 17,2 C 82 % 1015,9 hPa 0,0 l/m 2 min 0 min 381 W/m 19,3 km/h (3 Bft) 100,00 %
23.08.2020 09:16 17,6 C 21,1 C 17,8 C 82 % 1015,9 hPa 0,0 l/m 2 min 0 min 404 W/m 22,5 km/h (4 Bft) 100,00 %
23.08.2020 09:18 17,7 C 20,0 C 18,3 C 82 % 1015,9 hPa 0,0 l/m 2 min 0 min 359 W/m 19,3 km/h (3 Bft) 100,00 %
23.08.2020 09:20 17,8 C 21,1 C 20,0 C 81 % 1016,0 hPa 0,0 l/m 2 min 0 min 348 W/m 19,3 km/h (3 Bft) 100,00 %
23.08.2020 09:22 17,9 C 20,0 C 19,4 C 81 % 1016,0 hPa 0,0 l/m 2 min 0 min 386 W/m 16,1 km/h (3 Bft) 100,00 %
23.08.2020 09:24 18,1 C 21,1 C 20,0 C 81 % 1016,0 hPa 0,0 l/m 0 min 0 min 201 W/m 16,1 km/h (3 Bft) 100,00 %
23.08.2020 09:26 18,1 C 21,7 C 21,1 C 81 % 1015,9 hPa 0,0 l/m 2 min 0 min 435 W/m 3,2 km/h (1 Bft) 100,00 %
23.08.2020 09:28 18,2 C 20,6 C 20,6 C 80 % 1016,0 hPa 0,0 l/m 2 min 0 min 387 W/m 0,0 km/h (0 Bft) 100,00 %
23.08.2020 09:30 18,3 C 20,0 C 20,6 C 80 % 1016,0 hPa 0,0 l/m 0 min 0 min 123 W/m 9,7 km/h (2 Bft) 100,00 %
23.08.2020 09:32 18,3 C 21,1 C 22,2 C 80 % 1016,0 hPa 0,0 l/m 2 min 0 min 411 W/m 19,3 km/h (3 Bft) 100,00 %
23.08.2020 09:34 18,4 C 21,7 C 22,8 C 79 % 1016,1 hPa 0,0 l/m 2 min 0 min 432 W/m 16,1 km/h (3 Bft) 100,00 %
23.08.2020 09:36 18,5 C 20,0 C 20,6 C 79 % 1015,9 hPa 0,0 l/m 2 min 0 min 450 W/m 16,1 km/h (3 Bft) 100,00 %
23.08.2020 09:38 18,5 C 21,1 C 21,7 C 78 % 1016,0 hPa 0,0 l/m 2 min 0 min 452 W/m 22,5 km/h (4 Bft) 100,00 %
23.08.2020 09:40 18,6 C 20,0 C 21,1 C 78 % 1015,9 hPa 0,0 l/m 2 min 0 min 497 W/m 29,0 km/h (5 Bft) 100,00 %
23.08.2020 09:42 18,6 C 20,0 C 20,6 C 78 % 1016,1 hPa 0,0 l/m 0 min 0 min 213 W/m 12,9 km/h (3 Bft) 100,00 %
23.08.2020 09:44 18,6 C 20,0 C 20,6 C 78 % 1016,1 hPa 0,0 l/m 2 min 0 min 455 W/m 6,4 km/h (2 Bft) 100,00 %
23.08.2020 09:46 18,7 C 21,1 C 21,7 C 78 % 1016,0 hPa 0,0 l/m 2 min 0 min 257 W/m 16,1 km/h (3 Bft) 97,83 %
23.08.2020 09:48 18,7 C 19,4 C 20,0 C 77 % 1016,0 hPa 0,0 l/m 2 min 0 min 413 W/m 19,3 km/h (3 Bft) 100,00 %
23.08.2020 09:50 18,7 C 19,4 C 20,0 C 78 % 1016,1 hPa 0,0 l/m 0 min 0 min 157 W/m 3,2 km/h (1 Bft) 97,87 %
23.08.2020 09:52 18,7 C 19,4 C 20,0 C 77 % 1016,1 hPa 0,0 l/m 0 min 0 min 125 W/m 22,5 km/h (4 Bft) 95,74 %
23.08.2020 09:54 18,7 C 20,6 C 21,1 C 78 % 1016,0 hPa 0,0 l/m 0 min 0 min 227 W/m 6,4 km/h (2 Bft) 97,87 %
23.08.2020 09:56 18,8 C 21,1 C 21,1 C 77 % 1016,1 hPa 0,0 l/m 2 min 0 min 450 W/m 19,3 km/h (3 Bft) 97,87 %
23.08.2020 09:58 18,8 C 21,7 C 22,8 C 77 % 1016,1 hPa 0,0 l/m 2 min 0 min 612 W/m 19,3 km/h (3 Bft) 97,87 %
23.08.2020 10:00 18,9 C 20,6 C 20,6 C 77 % 1016,2 hPa 0,0 l/m 2 min 0 min 447 W/m 6,4 km/h (2 Bft) 97,83 %
23.08.2020 10:02 19,0 C 20,6 C 20,6 C 77 % 1016,1 hPa 0,0 l/m 0 min 0 min 160 W/m 0,0 km/h (0 Bft) 97,87 %
23.08.2020 10:04 19,1 C 21,1 C 21,7 C 78 % 1016,1 hPa 0,0 l/m 0 min 0 min 148 W/m 12,9 km/h (3 Bft) 97,87 %
23.08.2020 10:06 19,1 C 21,7 C 22,2 C 77 % 1016,1 hPa 0,0 l/m 0 min 0 min 192 W/m 16,1 km/h (3 Bft) 97,87 %
23.08.2020 10:08 19,2 C 22,8 C 23,9 C 76 % 1016,0 hPa 0,0 l/m 0 min 0 min 249 W/m 16,1 km/h (3 Bft) 95,74 %
23.08.2020 10:10 19,2 C 22,2 C 22,8 C 77 % 1016,0 hPa 0,0 l/m 2 min 0 min 551 W/m 16,1 km/h (3 Bft) 95,65 %
23.08.2020 10:12 19,3 C 22,2 C 22,8 C 75 % 1016,2 hPa 0,0 l/m 2 min 0 min 357 W/m 16,1 km/h (3 Bft) 95,74 %
23.08.2020 10:14 19,4 C 21,7 C 22,2 C 74 % 1016,0 hPa 0,0 l/m 2 min 0 min 657 W/m 16,1 km/h (3 Bft) 95,74 %
23.08.2020 10:16 19,4 C 20,6 C 21,1 C 74 % 1016,1 hPa 0,0 l/m 2 min 0 min 659 W/m 19,3 km/h (3 Bft) 96,00 %
23.08.2020 10:18 19,4 C 21,7 C 22,8 C 73 % 1016,1 hPa 0,0 l/m 2 min 0 min 659 W/m 22,5 km/h (4 Bft) 95,74 %
23.08.2020 10:20 19,5 C 22,2 C 23,3 C 74 % 1016,1 hPa 0,0 l/m 2 min 0 min 659 W/m 0,0 km/h (0 Bft) 95,65 %
23.08.2020 10:22 19,6 C 23,3 C 24,4 C 74 % 1016,0 hPa 0,0 l/m 2 min 0 min 640 W/m 0,0 km/h (0 Bft) 95,74 %
23.08.2020 10:24 19,6 C 23,3 C 25,0 C 73 % 1016,1 hPa 0,0 l/m 2 min 0 min 585 W/m 22,5 km/h (4 Bft) 91,49 %
23.08.2020 10:26 19,7 C 23,9 C 25,6 C 73 % 1016,1 hPa 0,0 l/m 2 min 0 min 578 W/m 16,1 km/h (3 Bft) 95,74 %
23.08.2020 10:28 19,9 C 24,4 C 25,6 C 73 % 1016,1 hPa 0,0 l/m 2 min 0 min 583 W/m 9,7 km/h (2 Bft) 95,74 %
23.08.2020 10:30 20,0 C 24,4 C 24,4 C 72 % 1016,1 hPa 0,0 l/m 2 min 0 min 595 W/m 22,5 km/h (4 Bft) 93,48 %
23.08.2020 10:32 20,1 C 23,9 C 22,8 C 71 % 1016,1 hPa 0,0 l/m 2 min 0 min 616 W/m 16,1 km/h (3 Bft) 97,87 %
23.08.2020 10:34 20,2 C 23,9 C 22,2 C 71 % 1016,1 hPa 0,0 l/m 2 min 0 min 606 W/m 16,1 km/h (3 Bft) 97,87 %
23.08.2020 10:36 20,3 C 23,3 C 21,7 C 71 % 1016,1 hPa 0,0 l/m 2 min 0 min 647 W/m 19,3 km/h (3 Bft) 97,87 %
23.08.2020 10:38 20,3 C 23,9 C 21,1 C 71 % 1016,0 hPa 0,0 l/m 2 min 0 min 689 W/m 12,9 km/h (3 Bft) 95,74 %
23.08.2020 10:40 20,5 C 25,0 C 21,7 C 71 % 1016,1 hPa 0,0 l/m 2 min 0 min 759 W/m 12,9 km/h (3 Bft) 97,87 %
23.08.2020 10:42 20,6 C 23,3 C 21,1 C 70 % 1016,1 hPa 0,0 l/m 2 min 0 min 770 W/m 16,1 km/h (3 Bft) 97,83 %
23.08.2020 10:44 20,6 C 21,1 C 20,0 C 69 % 1016,3 hPa 0,0 l/m 0 min 0 min 177 W/m 29,0 km/h (5 Bft) 97,87 %
23.08.2020 10:46 20,6 C 22,8 C 20,0 C 70 % 1016,1 hPa 0,0 l/m 2 min 0 min 308 W/m 35,4 km/h (5 Bft) 97,87 %
23.08.2020 10:48 20,6 C 21,7 C 19,4 C 69 % 1016,1 hPa 0,0 l/m 2 min 0 min 488 W/m 22,5 km/h (4 Bft) 97,87 %
23.08.2020 10:50 20,6 C 21,1 C 19,4 C 69 % 1016,1 hPa 0,0 l/m 0 min 0 min 200 W/m 19,3 km/h (3 Bft) 97,87 %
23.08.2020 10:52 20,4 C 20,6 C 19,4 C 70 % 1016,2 hPa 0,0 l/m 0 min 0 min 206 W/m 12,9 km/h (3 Bft) 97,87 %
23.08.2020 10:54 20,4 C 20,0 C 19,4 C 71 % 1016,1 hPa 0,0 l/m 0 min 0 min 204 W/m 12,9 km/h (3 Bft) 97,83 %
23.08.2020 10:56 20,3 C 20,0 C 19,4 C 70 % 1016,2 hPa 0,0 l/m 0 min 0 min 170 W/m 19,3 km/h (3 Bft) 95,74 %
23.08.2020 10:58 20,3 C 20,0 C 19,4 C 71 % 1016,2 hPa 0,0 l/m 0 min 0 min 188 W/m 3,2 km/h (1 Bft) 93,62 %
23.08.2020 11:00 20,2 C 20,0 C 18,9 C 71 % 1016,2 hPa 0,0 l/m 0 min 0 min 165 W/m 0,0 km/h (0 Bft) 95,74 %
23.08.2020 11:02 20,2 C 20,0 C 18,9 C 71 % 1016,2 hPa 0,0 l/m 0 min 0 min 177 W/m 0,0 km/h (0 Bft) 100,00 %
23.08.2020 11:04 20,1 C 20,0 C 18,9 C 71 % 1016,2 hPa 0,0 l/m 0 min 0 min 199 W/m 3,2 km/h (1 Bft) 100,00 %
23.08.2020 11:06 20,1 C 20,6 C 19,4 C 71 % 1016,2 hPa 0,0 l/m 0 min 0 min 287 W/m 16,1 km/h (3 Bft) 97,87 %
23.08.2020 11:08 20,0 C 20,0 C 19,4 C 72 % 1016,3 hPa 0,0 l/m 0 min 0 min 230 W/m 22,5 km/h (4 Bft) 97,83 %
23.08.2020 11:10 19,9 C 20,0 C 18,9 C 71 % 1016,3 hPa 0,0 l/m 0 min 0 min 204 W/m 19,3 km/h (3 Bft) 100,00 %
23.08.2020 11:12 19,8 C 20,0 C 18,9 C 71 % 1016,2 hPa 0,0 l/m 0 min 0 min 160 W/m 16,1 km/h (3 Bft) 97,87 %
23.08.2020 11:14 19,8 C 23,3 C 19,4 C 72 % 1016,2 hPa 0,0 l/m 2 min 0 min 607 W/m 12,9 km/h (3 Bft) 97,87 %
23.08.2020 11:16 20,0 C 23,9 C 20,0 C 73 % 1016,1 hPa 0,0 l/m 2 min 0 min 903 W/m 16,1 km/h (3 Bft) 100,00 %
23.08.2020 11:18 20,1 C 22,2 C 20,0 C 72 % 1016,1 hPa 0,0 l/m 0 min 0 min 278 W/m 0,0 km/h (0 Bft) 100,00 %
23.08.2020 11:20 20,1 C 21,1 C 19,4 C 71 % 1016,2 hPa 0,0 l/m 0 min 0 min 188 W/m 19,3 km/h (3 Bft) 100,00 %
23.08.2020 11:22 20,1 C 20,6 C 19,4 C 70 % 1016,2 hPa 0,0 l/m 0 min 0 min 188 W/m 0,0 km/h (0 Bft) 100,00 %
23.08.2020 11:24 20,1 C 20,0 C 18,9 C 70 % 1016,2 hPa 0,0 l/m 0 min 0 min 211 W/m 12,9 km/h (3 Bft) 100,00 %
23.08.2020 11:26 20,0 C 20,0 C 18,9 C 71 % 1016,2 hPa 0,0 l/m 0 min 0 min 210 W/m 19,3 km/h (3 Bft) 97,87 %
23.08.2020 11:28 20,0 C 20,0 C 18,9 C 71 % 1016,2 hPa 0,0 l/m 0 min 0 min 190 W/m 12,9 km/h (3 Bft) 97,87 %
23.08.2020 11:30 19,9 C 19,4 C 18,9 C 71 % 1016,3 hPa 0,0 l/m 0 min 0 min 171 W/m 19,3 km/h (3 Bft) 100,00 %
23.08.2020 11:32 19,9 C 19,4 C 18,9 C 71 % 1016,3 hPa 0,0 l/m 0 min 0 min 153 W/m 19,3 km/h (3 Bft) 95,74 %
23.08.2020 11:34 19,8 C 19,4 C 18,9 C 71 % 1016,2 hPa 0,0 l/m 0 min 0 min 119 W/m 22,5 km/h (4 Bft) 97,87 %
23.08.2020 11:36 19,8 C 20,0 C 18,9 C 71 % 1016,2 hPa 0,0 l/m 0 min 0 min 120 W/m 16,1 km/h (3 Bft) 100,00 %
23.08.2020 11:38 19,8 C 22,2 C 18,9 C 72 % 1016,2 hPa 0,0 l/m 2 min 0 min 525 W/m 9,7 km/h (2 Bft) 97,87 %
23.08.2020 11:40 19,8 C 23,9 C 19,4 C 73 % 1016,1 hPa 0,0 l/m 2 min 0 min 712 W/m 19,3 km/h (3 Bft) 97,87 %
23.08.2020 11:42 19,9 C 24,4 C 20,0 C 73 % 1016,2 hPa 0,0 l/m 2 min 0 min 832 W/m 25,7 km/h (4 Bft) 95,65 %
23.08.2020 11:44 20,1 C 25,6 C 20,0 C 72 % 1016,2 hPa 0,0 l/m 2 min 0 min 881 W/m 22,5 km/h (4 Bft) 100,00 %
23.08.2020 11:46 20,3 C 24,4 C 20,6 C 71 % 1016,2 hPa 0,0 l/m 2 min 0 min 755 W/m 35,4 km/h (5 Bft) 100,00 %
23.08.2020 11:48 20,4 C 23,3 C 20,6 C 71 % 1016,3 hPa 0,0 l/m 2 min 0 min 547 W/m 32,2 km/h (5 Bft) 100,00 %
23.08.2020 11:50 20,5 C 21,7 C 20,0 C 70 % 1016,2 hPa 0,0 l/m 0 min 0 min 299 W/m 22,5 km/h (4 Bft) 97,87 %
23.08.2020 11:52 20,5 C 20,6 C 19,4 C 69 % 1016,3 hPa 0,0 l/m 0 min 0 min 198 W/m 19,3 km/h (3 Bft) 95,74 %
23.08.2020 11:54 20,5 C 20,6 C 19,4 C 69 % 1016,3 hPa 0,0 l/m 0 min 0 min 264 W/m 12,9 km/h (3 Bft) 97,83 %
23.08.2020 11:56 20,4 C 21,1 C 20,0 C 71 % 1016,1 hPa 0,0 l/m 0 min 0 min 334 W/m 9,7 km/h (2 Bft) 100,00 %
23.08.2020 11:58 20,4 C 22,8 C 20,6 C 71 % 1016,1 hPa 0,0 l/m 2 min 0 min 418 W/m 0,0 km/h (0 Bft) 97,87 %
23.08.2020 12:00 20,6 C 24,4 C 20,6 C 71 % 1016,1 hPa 0,0 l/m 2 min 0 min 496 W/m 12,9 km/h (3 Bft) 95,74 %
23.08.2020 12:02 20,7 C 23,9 C 21,1 C 71 % 1016,1 hPa 0,0 l/m 2 min 0 min 496 W/m 16,1 km/h (3 Bft) 97,87 %
23.08.2020 12:04 20,7 C 22,2 C 20,6 C 70 % 1016,2 hPa 0,0 l/m 0 min 0 min 291 W/m 0,0 km/h (0 Bft) 97,87 %
23.08.2020 12:08 20,8 C 21,1 C 20,0 C 69 % 1016,1 hPa 0,0 l/m 0 min 0 min 191 W/m 19,3 km/h (3 Bft) 97,85 %
23.08.2020 12:10 20,8 C 21,1 C 20,0 C 70 % 1016,1 hPa 0,0 l/m 0 min 0 min 297 W/m 12,9 km/h (3 Bft) 97,87 %
23.08.2020 12:12 20,7 C 21,7 C 20,0 C 69 % 1016,2 hPa 0,0 l/m 2 min 0 min 370 W/m 12,9 km/h (3 Bft) 97,87 %
23.08.2020 12:14 20,7 C 22,8 C 20,6 C 69 % 1016,1 hPa 0,0 l/m 2 min 0 min 493 W/m 16,1 km/h (3 Bft) 95,74 %
23.08.2020 12:16 20,8 C 22,8 C 20,6 C 70 % 1016,2 hPa 0,0 l/m 2 min 0 min 430 W/m 16,1 km/h (3 Bft) 97,87 %
23.08.2020 12:18 20,8 C 22,2 C 20,6 C 70 % 1016,2 hPa 0,0 l/m 2 min 0 min 395 W/m 19,3 km/h (3 Bft) 97,83 %
23.08.2020 12:20 20,8 C 22,2 C 20,6 C 69 % 1016,3 hPa 0,0 l/m 2 min 0 min 401 W/m 16,1 km/h (3 Bft) 97,87 %
23.08.2020 12:22 20,8 C 21,7 C 20,6 C 70 % 1016,2 hPa 0,0 l/m 0 min 0 min 350 W/m 16,1 km/h (3 Bft) 95,74 %
23.08.2020 12:24 20,8 C 21,1 C 20,0 C 70 % 1016,3 hPa 0,0 l/m 0 min 0 min 251 W/m 29,0 km/h (5 Bft) 95,74 %
23.08.2020 12:26 20,8 C 20,6 C 20,0 C 70 % 1016,1 hPa 0,0 l/m 0 min 0 min 215 W/m 12,9 km/h (3 Bft) 93,62 %
23.08.2020 12:28 20,7 C 20,6 C 20,0 C 70 % 1016,2 hPa 0,0 l/m 0 min 0 min 195 W/m 25,7 km/h (4 Bft) 95,65 %
23.08.2020 12:30 20,7 C 20,0 C 19,4 C 70 % 1016,3 hPa 0,0 l/m 0 min 0 min 175 W/m 6,4 km/h (2 Bft) 95,65 %
23.08.2020 12:32 20,7 C 20,0 C 19,4 C 70 % 1016,3 hPa 0,0 l/m 0 min 0 min 129 W/m 16,1 km/h (3 Bft) 95,74 %
23.08.2020 12:34 20,6 C 19,4 C 19,4 C 70 % 1016,3 hPa 0,0 l/m 0 min 0 min 133 W/m 19,3 km/h (3 Bft) 95,74 %
23.08.2020 12:36 20,5 C 19,4 C 19,4 C 70 % 1016,4 hPa 0,0 l/m 0 min 0 min 155 W/m 12,9 km/h (3 Bft) 93,62 %
23.08.2020 12:38 20,4 C 19,4 C 18,9 C 70 % 1016,4 hPa 0,0 l/m 0 min 0 min 140 W/m 25,7 km/h (4 Bft) 95,65 %
23.08.2020 12:40 20,4 C 19,4 C 18,9 C 72 % 1016,4 hPa 0,0 l/m 0 min 0 min 101 W/m 9,7 km/h (2 Bft) 93,62 %
23.08.2020 12:42 20,3 C 16,7 C 18,3 C 72 % 1016,6 hPa 0,0 l/m 0 min 2 min 67 W/m 3,2 km/h (1 Bft) 93,62 %
23.08.2020 12:44 20,2 C 15,0 C 16,1 C 77 % 1016,7 hPa 0,4 l/m 0 min 2 min 76 W/m 22,5 km/h (4 Bft) 93,62 %
23.08.2020 12:46 19,9 C 15,0 C 16,1 C 78 % 1016,7 hPa 0,0 l/m 0 min 2 min 105 W/m 16,1 km/h (3 Bft) 93,62 %
23.08.2020 12:48 19,6 C 15,0 C 15,6 C 79 % 1016,6 hPa 0,2 l/m 0 min 2 min 144 W/m 12,9 km/h (3 Bft) 95,74 %
23.08.2020 12:50 19,4 C 15,6 C 15,6 C 81 % 1016,7 hPa 0,0 l/m 0 min 2 min 201 W/m 3,2 km/h (1 Bft) 95,65 %
23.08.2020 12:52 19,2 C 16,1 C 16,1 C 82 % 1016,7 hPa 0,0 l/m 0 min 2 min 299 W/m 6,4 km/h (2 Bft) 95,74 %
23.08.2020 12:54 19,1 C 17,8 C 16,7 C 83 % 1016,7 hPa 0,0 l/m 0 min 0 min 332 W/m 0,0 km/h (0 Bft) 95,74 %
23.08.2020 12:56 19,0 C 17,8 C 16,7 C 84 % 1016,7 hPa 0,0 l/m 0 min 0 min 354 W/m 3,2 km/h (1 Bft) 95,74 %
23.08.2020 12:58 18,9 C 18,3 C 16,7 C 85 % 1016,7 hPa 0,0 l/m 2 min 0 min 419 W/m 0,0 km/h (0 Bft) 93,62 %
23.08.2020 13:00 18,9 C 18,3 C 17,2 C 85 % 1016,7 hPa 0,0 l/m 0 min 0 min 364 W/m 3,2 km/h (1 Bft) 95,74 %
23.08.2020 13:02 18,8 C 18,3 C 17,2 C 86 % 1016,6 hPa 0,0 l/m 0 min 0 min 344 W/m 0,0 km/h (0 Bft) 97,87 %
23.08.2020 13:04 18,8 C 18,3 C 17,2 C 86 % 1016,8 hPa 0,0 l/m 0 min 0 min 309 W/m 6,4 km/h (2 Bft) 100,00 %
23.08.2020 13:06 18,8 C 18,9 C 16,7 C 85 % 1016,8 hPa 0,0 l/m 0 min 0 min 315 W/m 6,4 km/h (2 Bft) 100,00 %
23.08.2020 13:08 18,8 C 19,4 C 16,7 C 85 % 1016,8 hPa 0,0 l/m 0 min 0 min 341 W/m 0,0 km/h (0 Bft) 100,00 %
23.08.2020 13:10 18,8 C 21,1 C 17,2 C 85 % 1016,7 hPa 0,0 l/m 2 min 0 min 446 W/m 32,2 km/h (5 Bft) 97,87 %
23.08.2020 13:12 18,9 C 19,4 C 17,2 C 86 % 1016,7 hPa 0,0 l/m 2 min 0 min 1060 W/m 3,2 km/h (1 Bft) 100,00 %
23.08.2020 13:14 18,9 C 19,4 C 17,2 C 85 % 1016,8 hPa 0,0 l/m 2 min 0 min 798 W/m 12,9 km/h (3 Bft) 97,83 %
23.08.2020 13:16 18,9 C 19,4 C 17,2 C 84 % 1016,8 hPa 0,0 l/m 2 min 0 min 410 W/m 6,4 km/h (2 Bft) 100,00 %
23.08.2020 13:18 19,0 C 20,0 C 17,2 C 85 % 1016,8 hPa 0,0 l/m 2 min 0 min 383 W/m 3,2 km/h (1 Bft) 93,62 %
23.08.2020 13:20 19,1 C 21,1 C 17,2 C 85 % 1016,9 hPa 0,0 l/m 0 min 0 min 367 W/m 32,2 km/h (5 Bft) 97,87 %
23.08.2020 13:22 19,2 C 22,2 C 17,8 C 84 % 1016,8 hPa 0,0 l/m 0 min 0 min 367 W/m 19,3 km/h (3 Bft) 97,87 %
23.08.2020 13:24 19,3 C 22,8 C 17,8 C 84 % 1016,8 hPa 0,0 l/m 2 min 0 min 820 W/m 0,0 km/h (0 Bft) 97,83 %
23.08.2020 13:26 19,4 C 22,2 C 17,8 C 83 % 1016,7 hPa 0,0 l/m 2 min 0 min 1016 W/m 16,1 km/h (3 Bft) 95,74 %
23.08.2020 13:28 19,5 C 23,9 C 18,3 C 83 % 1016,6 hPa 0,0 l/m 2 min 0 min 1016 W/m 12,9 km/h (3 Bft) 97,87 %
23.08.2020 13:30 19,6 C 23,3 C 18,3 C 83 % 1016,8 hPa 0,0 l/m 2 min 0 min 1016 W/m 16,1 km/h (3 Bft) 97,87 %
23.08.2020 13:32 19,7 C 21,7 C 18,3 C 81 % 1016,6 hPa 0,0 l/m 0 min 0 min 334 W/m 25,7 km/h (4 Bft) 97,92 %
23.08.2020 13:34 19,7 C 21,7 C 18,3 C 81 % 1016,7 hPa 0,0 l/m 0 min 0 min 258 W/m 12,9 km/h (3 Bft) 97,87 %
23.08.2020 13:36 19,8 C 21,1 C 18,3 C 80 % 1016,7 hPa 0,0 l/m 0 min 0 min 269 W/m 16,1 km/h (3 Bft) 100,00 %
23.08.2020 13:38 19,8 C 20,0 C 18,3 C 79 % 1016,8 hPa 0,0 l/m 0 min 0 min 238 W/m 22,5 km/h (4 Bft) 97,87 %
23.08.2020 13:40 19,7 C 19,4 C 18,3 C 78 % 1016,8 hPa 0,0 l/m 0 min 0 min 161 W/m 12,9 km/h (3 Bft) 97,87 %
23.08.2020 13:42 19,7 C 19,4 C 17,8 C 78 % 1016,7 hPa 0,0 l/m 0 min 0 min 171 W/m 22,5 km/h (4 Bft) 97,87 %
23.08.2020 13:44 19,6 C 18,9 C 17,8 C 79 % 1016,7 hPa 0,0 l/m 0 min 0 min 146 W/m 12,9 km/h (3 Bft) 97,87 %
23.08.2020 13:46 19,6 C 18,9 C 17,8 C 79 % 1016,8 hPa 0,0 l/m 0 min 0 min 151 W/m 6,4 km/h (2 Bft) 97,87 %
23.08.2020 13:48 19,6 C 18,9 C 17,8 C 79 % 1016,8 hPa 0,0 l/m 0 min 0 min 119 W/m 12,9 km/h (3 Bft) 95,65 %
23.08.2020 13:50 19,6 C 18,9 C 17,8 C 79 % 1016,8 hPa 0,0 l/m 0 min 0 min 92 W/m 12,9 km/h (3 Bft) 97,87 %
23.08.2020 13:52 19,5 C 18,9 C 17,8 C 80 % 1016,8 hPa 0,0 l/m 0 min 0 min 77 W/m 9,7 km/h (2 Bft) 95,74 %
23.08.2020 13:54 19,5 C 22,2 C 18,3 C 80 % 1016,8 hPa 0,0 l/m 0 min 0 min 365 W/m 16,1 km/h (3 Bft) 97,87 %
23.08.2020 13:56 19,6 C 25,0 C 18,9 C 80 % 1016,8 hPa 0,0 l/m 2 min 0 min 1025 W/m 12,9 km/h (3 Bft) 97,92 %
23.08.2020 13:58 19,8 C 24,4 C 18,9 C 80 % 1016,7 hPa 0,0 l/m 2 min 0 min 766 W/m 12,9 km/h (3 Bft) 97,87 %
23.08.2020 14:00 19,9 C 23,3 C 19,4 C 80 % 1016,7 hPa 0,0 l/m 2 min 0 min 575 W/m 9,7 km/h (2 Bft) 97,83 %
23.08.2020 14:02 20,0 C 22,2 C 19,4 C 79 % 1016,8 hPa 0,0 l/m 0 min 0 min 292 W/m 19,3 km/h (3 Bft) 97,87 %
23.08.2020 14:04 20,1 C 21,1 C 19,4 C 77 % 1016,7 hPa 0,0 l/m 0 min 0 min 258 W/m 25,7 km/h (4 Bft) 95,74 %
23.08.2020 14:06 20,1 C 21,1 C 18,9 C 76 % 1016,7 hPa 0,0 l/m 0 min 0 min 226 W/m 16,1 km/h (3 Bft) 97,87 %
23.08.2020 14:08 20,1 C 20,6 C 18,9 C 76 % 1016,7 hPa 0,0 l/m 0 min 0 min 180 W/m 19,3 km/h (3 Bft) 97,87 %
23.08.2020 14:10 20,1 C 20,0 C 18,9 C 76 % 1016,8 hPa 0,0 l/m 0 min 0 min 146 W/m 16,1 km/h (3 Bft) 97,87 %
23.08.2020 14:12 20,1 C 20,0 C 18,9 C 76 % 1016,7 hPa 0,0 l/m 0 min 0 min 145 W/m 16,1 km/h (3 Bft) 100,00 %
23.08.2020 14:14 20,1 C 20,0 C 18,9 C 75 % 1016,7 hPa 0,0 l/m 0 min 0 min 175 W/m 22,5 km/h (4 Bft) 100,00 %
23.08.2020 14:16 20,1 C 20,0 C 18,9 C 75 % 1016,8 hPa 0,0 l/m 0 min 0 min 220 W/m 16,1 km/h (3 Bft) 100,00 %
23.08.2020 14:18 20,1 C 20,0 C 18,9 C 75 % 1016,6 hPa 0,0 l/m 0 min 0 min 248 W/m 12,9 km/h (3 Bft) 100,00 %
23.08.2020 14:20 20,1 C 20,6 C 18,9 C 75 % 1016,6 hPa 0,0 l/m 0 min 0 min 265 W/m 12,9 km/h (3 Bft) 97,87 %
23.08.2020 14:22 20,1 C 20,6 C 18,9 C 75 % 1016,6 hPa 0,0 l/m 0 min 0 min 253 W/m 12,9 km/h (3 Bft) 100,00 %
23.08.2020 14:24 20,1 C 20,6 C 19,4 C 75 % 1016,6 hPa 0,0 l/m 0 min 0 min 258 W/m 12,9 km/h (3 Bft) 100,00 %
23.08.2020 14:26 20,2 C 21,1 C 19,4 C 76 % 1016,5 hPa 0,0 l/m 0 min 0 min 274 W/m 0,0 km/h (0 Bft) 100,00 %
23.08.2020 14:28 20,2 C 21,1 C 19,4 C 76 % 1016,5 hPa 0,0 l/m 0 min 0 min 253 W/m 0,0 km/h (0 Bft) 100,00 %
23.08.2020 14:30 20,2 C 21,1 C 19,4 C 76 % 1016,5 hPa 0,0 l/m 0 min 0 min 248 W/m 0,0 km/h (0 Bft) 97,87 %
23.08.2020 14:32 20,3 C 21,1 C 19,4 C 75 % 1016,6 hPa 0,0 l/m 0 min 0 min 281 W/m 16,1 km/h (3 Bft) 100,00 %
23.08.2020 14:34 20,3 C 21,1 C 19,4 C 74 % 1016,6 hPa 0,0 l/m 0 min 0 min 326 W/m 19,3 km/h (3 Bft) 100,00 %
23.08.2020 14:36 20,4 C 21,7 C 19,4 C 74 % 1016,5 hPa 0,0 l/m 0 min 0 min 357 W/m 19,3 km/h (3 Bft) 97,87 %
23.08.2020 14:38 20,4 C 22,2 C 20,0 C 75 % 1016,6 hPa 0,0 l/m 2 min 0 min 450 W/m 22,5 km/h (4 Bft) 100,00 %
23.08.2020 14:40 20,5 C 23,9 C 20,6 C 74 % 1016,6 hPa 0,0 l/m 2 min 0 min 528 W/m 16,1 km/h (3 Bft) 100,00 %
23.08.2020 14:42 20,6 C 22,8 C 20,6 C 73 % 1016,6 hPa 0,0 l/m 2 min 0 min 510 W/m 29,0 km/h (5 Bft) 97,87 %
23.08.2020 14:44 20,7 C 22,8 C 20,6 C 73 % 1016,5 hPa 0,0 l/m 2 min 0 min 428 W/m 16,1 km/h (3 Bft) 100,00 %
23.08.2020 14:46 20,8 C 23,3 C 20,6 C 73 % 1016,5 hPa 0,0 l/m 2 min 0 min 454 W/m 19,3 km/h (3 Bft) 100,00 %
23.08.2020 14:48 20,9 C 23,3 C 20,6 C 74 % 1016,5 hPa 0,0 l/m 2 min 0 min 360 W/m 16,1 km/h (3 Bft) 97,87 %
23.08.2020 14:50 21,0 C 22,8 C 20,6 C 73 % 1016,5 hPa 0,0 l/m 2 min 0 min 404 W/m 19,3 km/h (3 Bft) 100,00 %
23.08.2020 14:52 21,1 C 22,8 C 20,6 C 73 % 1016,6 hPa 0,0 l/m 0 min 0 min 355 W/m 0,0 km/h (0 Bft) 100,00 %
23.08.2020 14:54 21,1 C 22,2 C 20,6 C 72 % 1016,5 hPa 0,0 l/m 0 min 0 min 306 W/m 16,1 km/h (3 Bft) 100,00 %
23.08.2020 14:56 21,1 C 21,7 C 20,0 C 71 % 1016,5 hPa 0,0 l/m 0 min 0 min 270 W/m 19,3 km/h (3 Bft) 97,87 %
23.08.2020 14:58 21,1 C 21,7 C 20,0 C 72 % 1016,5 hPa 0,0 l/m 0 min 0 min 236 W/m 12,9 km/h (3 Bft) 97,83 %
23.08.2020 15:00 21,2 C 21,1 C 20,0 C 72 % 1016,5 hPa 0,0 l/m 0 min 0 min 183 W/m 16,1 km/h (3 Bft) 95,74 %
23.08.2020 15:02 21,1 C 20,6 C 20,0 C 71 % 1016,6 hPa 0,0 l/m 0 min 0 min 162 W/m 19,3 km/h (3 Bft) 95,83 %
23.08.2020 15:04 21,1 C 21,1 C 20,0 C 72 % 1016,5 hPa 0,0 l/m 0 min 0 min 160 W/m 6,4 km/h (2 Bft) 97,87 %
23.08.2020 15:06 21,1 C 21,1 C 19,4 C 71 % 1016,5 hPa 0,0 l/m 0 min 0 min 166 W/m 16,1 km/h (3 Bft) 97,87 %
23.08.2020 15:08 21,1 C 21,1 C 19,4 C 71 % 1016,6 hPa 0,0 l/m 0 min 0 min 202 W/m 3,2 km/h (1 Bft) 97,87 %
23.08.2020 15:10 21,1 C 21,1 C 20,0 C 71 % 1016,5 hPa 0,0 l/m 0 min 0 min 239 W/m 16,1 km/h (3 Bft) 97,83 %
23.08.2020 15:12 21,1 C 21,1 C 20,0 C 71 % 1016,5 hPa 0,0 l/m 0 min 0 min 246 W/m 12,9 km/h (3 Bft) 97,87 %
23.08.2020 15:14 21,1 C 21,7 C 20,0 C 70 % 1016,5 hPa 0,0 l/m 0 min 0 min 202 W/m 6,4 km/h (2 Bft) 95,74 %
23.08.2020 15:16 21,1 C 21,1 C 20,0 C 70 % 1016,5 hPa 0,0 l/m 0 min 0 min 180 W/m 22,5 km/h (4 Bft) 95,74 %
23.08.2020 15:18 21,1 C 21,1 C 20,0 C 70 % 1016,4 hPa 0,0 l/m 0 min 0 min 158 W/m 16,1 km/h (3 Bft) 95,74 %
23.08.2020 15:20 21,1 C 20,6 C 19,4 C 70 % 1016,4 hPa 0,0 l/m 0 min 0 min 98 W/m 9,7 km/h (2 Bft) 97,87 %
23.08.2020 15:22 21,1 C 20,6 C 19,4 C 70 % 1016,4 hPa 0,0 l/m 0 min 0 min 53 W/m 12,9 km/h (3 Bft) 93,48 %
23.08.2020 15:24 21,1 C 17,2 C 18,9 C 71 % 1016,6 hPa 0,0 l/m 0 min 2 min 41 W/m 16,1 km/h (3 Bft) 95,74 %
23.08.2020 15:26 21,0 C 16,1 C 18,3 C 73 % 1016,6 hPa 0,2 l/m 0 min 2 min 51 W/m 16,1 km/h (3 Bft) 95,74 %
23.08.2020 15:28 20,9 C 16,7 C 17,8 C 74 % 1016,6 hPa 0,0 l/m 0 min 2 min 51 W/m 12,9 km/h (3 Bft) 97,87 %
23.08.2020 15:30 20,8 C 16,7 C 17,8 C 75 % 1016,6 hPa 0,0 l/m 0 min 2 min 54 W/m 9,7 km/h (2 Bft) 97,87 %
23.08.2020 15:32 20,7 C 16,1 C 17,8 C 75 % 1016,6 hPa 0,0 l/m 0 min 2 min 73 W/m 12,9 km/h (3 Bft) 97,37 %
23.08.2020 15:34 20,6 C 16,7 C 17,2 C 76 % 1016,6 hPa 0,0 l/m 0 min 2 min 100 W/m 12,9 km/h (3 Bft) 93,62 %
23.08.2020 15:36 20,4 C 16,7 C 17,8 C 77 % 1016,6 hPa 0,0 l/m 0 min 2 min 147 W/m 3,2 km/h (1 Bft) 95,65 %
23.08.2020 15:38 20,3 C 17,2 C 17,8 C 78 % 1016,6 hPa 0,0 l/m 0 min 2 min 192 W/m 3,2 km/h (1 Bft) 95,74 %
23.08.2020 15:40 20,3 C 17,2 C 17,8 C 79 % 1016,5 hPa 0,0 l/m 0 min 0 min 201 W/m 3,2 km/h (1 Bft) 97,87 %
23.08.2020 15:42 20,3 C 17,8 C 18,3 C 79 % 1016,5 hPa 0,0 l/m 0 min 0 min 195 W/m 0,0 km/h (0 Bft) 97,87 %
23.08.2020 15:44 20,2 C 18,3 C 18,3 C 78 % 1016,6 hPa 0,0 l/m 0 min 0 min 202 W/m 6,4 km/h (2 Bft) 97,87 %
23.08.2020 15:46 20,2 C 18,3 C 18,9 C 78 % 1016,5 hPa 0,0 l/m 0 min 0 min 194 W/m 0,0 km/h (0 Bft) 95,74 %
23.08.2020 15:48 20,1 C 18,9 C 18,9 C 78 % 1016,5 hPa 0,0 l/m 0 min 0 min 200 W/m 12,9 km/h (3 Bft) 97,83 %
23.08.2020 15:50 20,1 C 18,9 C 18,9 C 78 % 1016,6 hPa 0,0 l/m 0 min 0 min 213 W/m 19,3 km/h (3 Bft) 97,87 %
23.08.2020 15:52 20,1 C 19,4 C 18,9 C 77 % 1016,7 hPa 0,0 l/m 0 min 0 min 240 W/m 16,1 km/h (3 Bft) 95,74 %
23.08.2020 15:54 20,1 C 20,0 C 19,4 C 77 % 1016,6 hPa 0,0 l/m 0 min 0 min 231 W/m 12,9 km/h (3 Bft) 97,87 %
23.08.2020 15:56 20,2 C 20,6 C 19,4 C 77 % 1016,7 hPa 0,0 l/m 0 min 0 min 209 W/m 3,2 km/h (1 Bft) 95,74 %
23.08.2020 15:58 20,2 C 20,6 C 18,9 C 76 % 1016,6 hPa 0,0 l/m 0 min 0 min 197 W/m 22,5 km/h (4 Bft) 97,87 %
23.08.2020 16:00 20,2 C 20,6 C 18,9 C 76 % 1016,5 hPa 0,0 l/m 0 min 0 min 209 W/m 16,1 km/h (3 Bft) 97,83 %
23.08.2020 16:02 20,2 C 20,6 C 19,4 C 75 % 1016,5 hPa 0,0 l/m 0 min 0 min 223 W/m 0,0 km/h (0 Bft) 95,74 %
23.08.2020 16:04 20,2 C 20,6 C 19,4 C 75 % 1016,5 hPa 0,0 l/m 0 min 0 min 247 W/m 6,4 km/h (2 Bft) 97,87 %
23.08.2020 16:06 20,3 C 21,1 C 19,4 C 75 % 1016,5 hPa 0,0 l/m 0 min 0 min 311 W/m 22,5 km/h (4 Bft) 93,62 %
23.08.2020 16:08 20,3 C 21,7 C 19,4 C 74 % 1016,5 hPa 0,0 l/m 0 min 0 min 308 W/m 16,1 km/h (3 Bft) 97,87 %
23.08.2020 16:10 20,4 C 22,8 C 20,0 C 74 % 1016,5 hPa 0,0 l/m 0 min 0 min 287 W/m 19,3 km/h (3 Bft) 97,87 %
23.08.2020 16:12 20,5 C 23,3 C 20,0 C 74 % 1016,5 hPa 0,0 l/m 0 min 0 min 287 W/m 12,9 km/h (3 Bft) 97,83 %
23.08.2020 16:14 20,6 C 23,9 C 20,0 C 74 % 1016,4 hPa 0,0 l/m 0 min 0 min 287 W/m 3,2 km/h (1 Bft) 97,87 %
23.08.2020 16:16 20,8 C 25,0 C 20,6 C 75 % 1016,5 hPa 0,0 l/m 0 min 0 min 287 W/m 32,2 km/h (5 Bft) 95,74 %
23.08.2020 16:18 20,9 C 23,9 C 20,6 C 74 % 1016,5 hPa 0,0 l/m 2 min 0 min 320 W/m 19,3 km/h (3 Bft) 97,87 %
23.08.2020 16:20 21,1 C 23,3 C 20,6 C 72 % 1016,5 hPa 0,0 l/m 2 min 0 min 421 W/m 19,3 km/h (3 Bft) 98,11 %
23.08.2020 16:22 21,2 C 23,9 C 20,6 C 72 % 1016,4 hPa 0,0 l/m 2 min 0 min 507 W/m 19,3 km/h (3 Bft) 95,74 %
23.08.2020 16:24 21,3 C 23,9 C 20,6 C 72 % 1016,5 hPa 0,0 l/m 2 min 0 min 537 W/m 19,3 km/h (3 Bft) 97,87 %
23.08.2020 16:26 21,5 C 25,6 C 21,1 C 72 % 1016,5 hPa 0,0 l/m 2 min 0 min 548 W/m 9,7 km/h (2 Bft) 100,00 %
23.08.2020 16:28 21,6 C 25,6 C 21,1 C 72 % 1016,7 hPa 0,0 l/m 2 min 0 min 603 W/m 19,3 km/h (3 Bft) 97,87 %
23.08.2020 16:30 21,8 C 25,0 C 21,1 C 72 % 1016,5 hPa 0,0 l/m 2 min 0 min 473 W/m 16,1 km/h (3 Bft) 97,87 %
23.08.2020 16:32 21,8 C 25,0 C 21,1 C 70 % 1016,5 hPa 0,0 l/m 2 min 0 min 323 W/m 16,1 km/h (3 Bft) 97,87 %
23.08.2020 16:34 21,9 C 25,0 C 21,1 C 70 % 1016,5 hPa 0,0 l/m 2 min 0 min 323 W/m 6,4 km/h (2 Bft) 97,87 %
23.08.2020 16:36 22,0 C 23,9 C 20,6 C 69 % 1016,5 hPa 0,0 l/m 0 min 0 min 269 W/m 19,3 km/h (3 Bft) 97,87 %
23.08.2020 16:38 22,1 C 22,8 C 20,6 C 69 % 1016,4 hPa 0,0 l/m 0 min 0 min 196 W/m 22,5 km/h (4 Bft) 97,87 %
23.08.2020 16:40 22,0 C 22,2 C 20,6 C 68 % 1016,5 hPa 0,0 l/m 0 min 0 min 215 W/m 32,2 km/h (5 Bft) 97,87 %
23.08.2020 16:42 21,9 C 21,7 C 20,0 C 68 % 1016,7 hPa 0,0 l/m 0 min 0 min 243 W/m 22,5 km/h (4 Bft) 95,65 %
23.08.2020 16:44 21,9 C 21,7 C 20,0 C 69 % 1016,5 hPa 0,0 l/m 0 min 0 min 234 W/m 12,9 km/h (3 Bft) 97,92 %
23.08.2020 16:46 21,8 C 21,7 C 20,0 C 69 % 1016,4 hPa 0,0 l/m 0 min 0 min 227 W/m 3,2 km/h (1 Bft) 95,74 %
23.08.2020 16:48 21,8 C 21,7 C 20,0 C 69 % 1016,5 hPa 0,0 l/m 0 min 0 min 228 W/m 9,7 km/h (2 Bft) 97,87 %
23.08.2020 16:50 21,8 C 21,7 C 20,0 C 70 % 1016,4 hPa 0,0 l/m 0 min 0 min 226 W/m 16,1 km/h (3 Bft) 97,87 %
23.08.2020 16:52 21,8 C 21,7 C 20,0 C 70 % 1016,4 hPa 0,0 l/m 0 min 0 min 227 W/m 12,9 km/h (3 Bft) 97,87 %
23.08.2020 16:54 21,7 C 22,2 C 20,6 C 70 % 1016,4 hPa 0,0 l/m 0 min 0 min 257 W/m 0,0 km/h (0 Bft) 95,65 %
23.08.2020 16:56 21,7 C 22,8 C 20,6 C 70 % 1016,4 hPa 0,0 l/m 2 min 0 min 311 W/m 0,0 km/h (0 Bft) 97,87 %
23.08.2020 16:58 21,8 C 22,8 C 20,6 C 70 % 1016,5 hPa 0,0 l/m 2 min 0 min 317 W/m 0,0 km/h (0 Bft) 97,87 %
23.08.2020 17:00 21,8 C 22,8 C 20,6 C 70 % 1016,4 hPa 0,0 l/m 0 min 0 min 262 W/m 19,3 km/h (3 Bft) 97,87 %
23.08.2020 17:02 21,8 C 22,8 C 20,6 C 69 % 1016,5 hPa 0,0 l/m 0 min 0 min 236 W/m 12,9 km/h (3 Bft) 97,87 %
23.08.2020 17:04 21,8 C 22,2 C 20,6 C 69 % 1016,5 hPa 0,0 l/m 0 min 0 min 206 W/m 16,1 km/h (3 Bft) 97,56 %
23.08.2020 17:06 21,8 C 22,2 C 20,6 C 69 % 1016,5 hPa 0,0 l/m 0 min 0 min 180 W/m 12,9 km/h (3 Bft) 97,87 %
23.08.2020 17:08 21,7 C 21,7 C 20,0 C 69 % 1016,5 hPa 0,0 l/m 0 min 0 min 149 W/m 16,1 km/h (3 Bft) 97,87 %
23.08.2020 17:10 21,7 C 21,7 C 20,0 C 69 % 1016,4 hPa 0,0 l/m 0 min 0 min 134 W/m 3,2 km/h (1 Bft) 97,83 %
23.08.2020 17:12 21,7 C 21,1 C 20,0 C 70 % 1016,5 hPa 0,0 l/m 0 min 0 min 127 W/m 0,0 km/h (0 Bft) 97,87 %
23.08.2020 17:14 21,7 C 21,1 C 20,0 C 70 % 1016,5 hPa 0,0 l/m 0 min 0 min 117 W/m 16,1 km/h (3 Bft) 97,87 %
23.08.2020 17:16 21,6 C 21,1 C 20,0 C 69 % 1016,5 hPa 0,0 l/m 0 min 0 min 105 W/m 6,4 km/h (2 Bft) 97,87 %
23.08.2020 17:18 21,6 C 20,6 C 20,0 C 69 % 1016,5 hPa 0,0 l/m 0 min 0 min 98 W/m 12,9 km/h (3 Bft) 100,00 %
23.08.2020 17:20 21,4 C 20,6 C 20,0 C 69 % 1016,5 hPa 0,0 l/m 0 min 0 min 114 W/m 3,2 km/h (1 Bft) 100,00 %
23.08.2020 17:22 21,4 C 20,6 C 20,0 C 68 % 1016,4 hPa 0,0 l/m 0 min 0 min 139 W/m 12,9 km/h (3 Bft) 97,83 %
23.08.2020 17:24 21,3 C 21,1 C 20,0 C 69 % 1016,5 hPa 0,0 l/m 0 min 0 min 156 W/m 16,1 km/h (3 Bft) 100,00 %
23.08.2020 17:26 21,3 C 21,7 C 20,0 C 69 % 1016,5 hPa 0,0 l/m 0 min 0 min 198 W/m 19,3 km/h (3 Bft) 97,87 %
23.08.2020 17:28 21,3 C 21,7 C 20,0 C 69 % 1016,5 hPa 0,0 l/m 2 min 0 min 382 W/m 25,7 km/h (4 Bft) 97,87 %
23.08.2020 17:30 21,3 C 21,7 C 20,6 C 70 % 1016,5 hPa 0,0 l/m 2 min 0 min 274 W/m 12,9 km/h (3 Bft) 97,87 %
23.08.2020 17:32 21,3 C 21,7 C 20,6 C 70 % 1016,5 hPa 0,0 l/m 2 min 0 min 264 W/m 16,1 km/h (3 Bft) 98,11 %
23.08.2020 17:34 21,4 C 21,7 C 20,6 C 70 % 1016,5 hPa 0,0 l/m 2 min 0 min 245 W/m 12,9 km/h (3 Bft) 95,74 %
23.08.2020 17:36 21,4 C 21,7 C 20,6 C 70 % 1016,5 hPa 0,0 l/m 0 min 0 min 204 W/m 12,9 km/h (3 Bft) 97,44 %
23.08.2020 17:38 21,4 C 21,7 C 20,0 C 70 % 1016,5 hPa 0,0 l/m 0 min 0 min 173 W/m 19,3 km/h (3 Bft) 97,87 %
23.08.2020 17:40 21,4 C 21,1 C 20,0 C 70 % 1016,5 hPa 0,0 l/m 0 min 0 min 154 W/m 9,7 km/h (2 Bft) 95,74 %
23.08.2020 17:42 21,4 C 21,1 C 20,0 C 69 % 1016,5 hPa 0,0 l/m 0 min 0 min 147 W/m 12,9 km/h (3 Bft) 97,83 %
23.08.2020 17:44 21,4 C 21,1 C 20,0 C 69 % 1016,4 hPa 0,0 l/m 0 min 0 min 149 W/m 3,2 km/h (1 Bft) 97,87 %
23.08.2020 17:46 21,3 C 21,1 C 20,0 C 69 % 1016,5 hPa 0,0 l/m 0 min 0 min 157 W/m 16,1 km/h (3 Bft) 97,87 %
23.08.2020 17:48 21,3 C 20,6 C 20,0 C 69 % 1016,4 hPa 0,0 l/m 0 min 0 min 162 W/m 9,7 km/h (2 Bft) 97,87 %
23.08.2020 17:50 21,3 C 20,6 C 20,0 C 69 % 1016,5 hPa 0,0 l/m 0 min 0 min 161 W/m 16,1 km/h (3 Bft) 95,74 %
23.08.2020 17:52 21,2 C 20,6 C 20,0 C 69 % 1016,5 hPa 0,0 l/m 0 min 0 min 138 W/m 12,9 km/h (3 Bft) 97,87 %
23.08.2020 17:54 21,2 C 20,6 C 20,0 C 69 % 1016,5 hPa 0,0 l/m 0 min 0 min 112 W/m 3,2 km/h (1 Bft) 97,83 %
23.08.2020 17:56 21,2 C 20,6 C 20,0 C 69 % 1016,5 hPa 0,0 l/m 0 min 0 min 95 W/m 12,9 km/h (3 Bft) 95,74 %
23.08.2020 17:58 21,2 C 20,0 C 20,0 C 69 % 1016,4 hPa 0,0 l/m 0 min 0 min 82 W/m 16,1 km/h (3 Bft) 95,74 %
23.08.2020 18:00 21,1 C 20,0 C 19,4 C 70 % 1016,5 hPa 0,0 l/m 0 min 0 min 70 W/m 12,9 km/h (3 Bft) 97,87 %
23.08.2020 18:02 21,1 C 20,0 C 19,4 C 70 % 1016,5 hPa 0,0 l/m 0 min 0 min 56 W/m 9,7 km/h (2 Bft) 97,92 %
23.08.2020 18:04 21,1 C 20,0 C 19,4 C 70 % 1016,4 hPa 0,0 l/m 0 min 0 min 52 W/m 16,1 km/h (3 Bft) 97,87 %
23.08.2020 18:08 21,0 C 20,0 C 19,4 C 72 % 1016,5 hPa 0,0 l/m 0 min 4 min 110 W/m 9,7 km/h (2 Bft) 96,77 %
23.08.2020 18:10 21,0 C 20,6 C 19,4 C 74 % 1016,5 hPa 0,0 l/m 2 min 0 min 295 W/m 12,9 km/h (3 Bft) 97,87 %
23.08.2020 18:12 21,0 C 20,6 C 19,4 C 75 % 1016,5 hPa 0,0 l/m 2 min 0 min 224 W/m 16,1 km/h (3 Bft) 100,00 %
23.08.2020 18:14 21,0 C 20,6 C 19,4 C 75 % 1016,5 hPa 0,0 l/m 2 min 0 min 190 W/m 9,7 km/h (2 Bft) 100,00 %
23.08.2020 18:16 20,9 C 20,0 C 19,4 C 75 % 1016,5 hPa 0,0 l/m 0 min 0 min 162 W/m 12,9 km/h (3 Bft) 100,00 %
23.08.2020 18:18 20,9 C 20,0 C 18,9 C 75 % 1016,5 hPa 0,0 l/m 0 min 0 min 128 W/m 9,7 km/h (2 Bft) 100,00 %
23.08.2020 18:20 20,9 C 20,0 C 18,9 C 75 % 1016,5 hPa 0,0 l/m 0 min 0 min 99 W/m 3,2 km/h (1 Bft) 100,00 %
23.08.2020 18:22 20,8 C 20,0 C 18,9 C 75 % 1016,4 hPa 0,0 l/m 0 min 0 min 83 W/m 0,0 km/h (0 Bft) 100,00 %
23.08.2020 18:24 20,8 C 20,0 C 18,9 C 76 % 1016,4 hPa 0,0 l/m 0 min 0 min 84 W/m 3,2 km/h (1 Bft) 100,00 %
23.08.2020 18:26 20,7 C 19,4 C 18,9 C 75 % 1016,4 hPa 0,0 l/m 0 min 0 min 88 W/m 19,3 km/h (3 Bft) 100,00 %
23.08.2020 18:28 20,7 C 19,4 C 18,9 C 75 % 1016,4 hPa 0,0 l/m 0 min 0 min 91 W/m 3,2 km/h (1 Bft) 97,87 %
23.08.2020 18:30 20,6 C 19,4 C 18,9 C 76 % 1016,4 hPa 0,0 l/m 0 min 0 min 99 W/m 0,0 km/h (0 Bft) 97,83 %
23.08.2020 18:32 20,6 C 20,0 C 18,9 C 76 % 1016,4 hPa 0,0 l/m 0 min 0 min 109 W/m 0,0 km/h (0 Bft) 100,00 %
23.08.2020 18:34 20,6 C 20,0 C 19,4 C 76 % 1016,4 hPa 0,0 l/m 0 min 0 min 133 W/m 0,0 km/h (0 Bft) 100,00 %
23.08.2020 18:36 20,6 C 20,0 C 19,4 C 75 % 1016,4 hPa 0,0 l/m 2 min 0 min 200 W/m 16,1 km/h (3 Bft) 97,87 %
23.08.2020 18:38 20,6 C 20,6 C 19,4 C 76 % 1016,4 hPa 0,0 l/m 2 min 0 min 209 W/m 9,7 km/h (2 Bft) 97,87 %
23.08.2020 18:40 20,6 C 20,6 C 19,4 C 76 % 1016,4 hPa 0,0 l/m 2 min 0 min 188 W/m 22,5 km/h (4 Bft) 97,83 %
23.08.2020 18:42 20,6 C 20,6 C 19,4 C 75 % 1016,4 hPa 0,0 l/m 2 min 0 min 190 W/m 16,1 km/h (3 Bft) 97,87 %
23.08.2020 18:44 20,6 C 20,6 C 19,4 C 75 % 1016,5 hPa 0,0 l/m 2 min 0 min 143 W/m 12,9 km/h (3 Bft) 100,00 %
23.08.2020 18:46 20,6 C 20,6 C 19,4 C 75 % 1016,5 hPa 0,0 l/m 0 min 0 min 125 W/m 3,2 km/h (1 Bft) 97,87 %
23.08.2020 18:48 20,6 C 20,6 C 19,4 C 75 % 1016,5 hPa 0,0 l/m 0 min 0 min 119 W/m 12,9 km/h (3 Bft) 97,87 %
23.08.2020 18:50 20,6 C 20,0 C 19,4 C 75 % 1016,5 hPa 0,0 l/m 0 min 0 min 120 W/m 19,3 km/h (3 Bft) 93,62 %
23.08.2020 18:52 20,6 C 20,0 C 19,4 C 75 % 1016,5 hPa 0,0 l/m 0 min 0 min 115 W/m 6,4 km/h (2 Bft) 97,83 %
23.08.2020 18:54 20,5 C 20,0 C 18,9 C 75 % 1016,5 hPa 0,0 l/m 0 min 0 min 106 W/m 6,4 km/h (2 Bft) 97,87 %
23.08.2020 18:56 20,5 C 20,0 C 18,9 C 75 % 1016,6 hPa 0,0 l/m 0 min 0 min 97 W/m 12,9 km/h (3 Bft) 93,62 %
23.08.2020 18:58 20,5 C 19,4 C 18,9 C 75 % 1016,5 hPa 0,0 l/m 0 min 0 min 84 W/m 12,9 km/h (3 Bft) 97,87 %
23.08.2020 19:00 20,4 C 19,4 C 18,9 C 75 % 1016,5 hPa 0,0 l/m 0 min 0 min 73 W/m 12,9 km/h (3 Bft) 97,87 %
23.08.2020 19:02 20,4 C 19,4 C 18,9 C 75 % 1016,5 hPa 0,0 l/m 0 min 0 min 66 W/m 6,4 km/h (2 Bft) 97,87 %
23.08.2020 19:04 20,4 C 18,9 C 18,9 C 75 % 1016,5 hPa 0,0 l/m 0 min 0 min 60 W/m 6,4 km/h (2 Bft) 95,65 %
23.08.2020 19:06 20,3 C 18,9 C 18,9 C 75 % 1016,5 hPa 0,0 l/m 0 min 0 min 57 W/m 9,7 km/h (2 Bft) 97,87 %
23.08.2020 19:08 20,3 C 18,9 C 18,3 C 75 % 1016,4 hPa 0,0 l/m 0 min 0 min 55 W/m 0,0 km/h (0 Bft) 97,87 %
23.08.2020 19:10 20,3 C 18,9 C 18,3 C 76 % 1016,5 hPa 0,0 l/m 0 min 0 min 55 W/m 0,0 km/h (0 Bft) 97,87 %
23.08.2020 19:12 20,3 C 18,9 C 18,9 C 76 % 1016,4 hPa 0,0 l/m 0 min 0 min 59 W/m 0,0 km/h (0 Bft) 95,74 %
23.08.2020 19:14 20,2 C 18,9 C 18,3 C 76 % 1016,5 hPa 0,0 l/m 0 min 0 min 66 W/m 0,0 km/h (0 Bft) 95,74 %
23.08.2020 19:16 20,2 C 19,4 C 18,9 C 76 % 1016,5 hPa 0,0 l/m 0 min 0 min 75 W/m 0,0 km/h (0 Bft) 97,83 %
23.08.2020 19:18 20,2 C 19,4 C 18,9 C 76 % 1016,5 hPa 0,0 l/m 0 min 0 min 74 W/m 0,0 km/h (0 Bft) 97,87 %
23.08.2020 19:20 20,1 C 18,9 C 18,9 C 77 % 1016,5 hPa 0,0 l/m 0 min 0 min 67 W/m 0,0 km/h (0 Bft) 95,74 %
23.08.2020 19:22 20,1 C 18,9 C 18,9 C 77 % 1016,5 hPa 0,0 l/m 0 min 0 min 64 W/m 0,0 km/h (0 Bft) 97,87 %
23.08.2020 19:24 20,1 C 19,4 C 18,9 C 77 % 1016,4 hPa 0,0 l/m 0 min 0 min 64 W/m 0,0 km/h (0 Bft) 97,87 %
23.08.2020 19:26 20,1 C 19,4 C 18,9 C 77 % 1016,5 hPa 0,0 l/m 0 min 0 min 63 W/m 0,0 km/h (0 Bft) 97,83 %
23.08.2020 19:28 20,1 C 19,4 C 18,9 C 77 % 1016,6 hPa 0,0 l/m 0 min 0 min 61 W/m 0,0 km/h (0 Bft) 97,87 %
23.08.2020 19:30 20,1 C 19,4 C 18,9 C 77 % 1016,6 hPa 0,0 l/m 0 min 0 min 57 W/m 3,2 km/h (1 Bft) 100,00 %
23.08.2020 19:32 20,1 C 19,4 C 18,9 C 77 % 1016,5 hPa 0,0 l/m 0 min 0 min 52 W/m 3,2 km/h (1 Bft) 97,92 %
23.08.2020 19:34 20,0 C 19,4 C 18,9 C 77 % 1016,6 hPa 0,0 l/m 0 min 0 min 51 W/m 9,7 km/h (2 Bft) 95,74 %
23.08.2020 19:36 20,0 C 19,4 C 18,9 C 77 % 1016,6 hPa 0,0 l/m 0 min 0 min 53 W/m 3,2 km/h (1 Bft) 95,74 %
23.08.2020 19:38 20,0 C 19,4 C 18,9 C 77 % 1016,6 hPa 0,0 l/m 0 min 0 min 56 W/m 0,0 km/h (0 Bft) 93,75 %
23.08.2020 19:40 20,0 C 19,4 C 18,9 C 77 % 1016,6 hPa 0,0 l/m 0 min 0 min 63 W/m 12,9 km/h (3 Bft) 95,65 %
23.08.2020 19:42 20,0 C 19,4 C 18,9 C 77 % 1016,5 hPa 0,0 l/m 0 min 0 min 61 W/m 6,4 km/h (2 Bft) 95,74 %
23.08.2020 19:44 20,0 C 19,4 C 18,9 C 77 % 1016,6 hPa 0,0 l/m 2 min 0 min 65 W/m 6,4 km/h (2 Bft) 95,74 %
23.08.2020 19:46 20,0 C 19,4 C 18,9 C 78 % 1016,6 hPa 0,0 l/m 2 min 0 min 61 W/m 0,0 km/h (0 Bft) 97,87 %
23.08.2020 19:48 20,0 C 19,4 C 18,9 C 78 % 1016,6 hPa 0,0 l/m 0 min 0 min 49 W/m 0,0 km/h (0 Bft) 97,87 %
23.08.2020 19:50 20,0 C 18,9 C 18,9 C 78 % 1016,6 hPa 0,0 l/m 0 min 0 min 37 W/m 0,0 km/h (0 Bft) 95,74 %
23.08.2020 19:52 19,9 C 18,9 C 18,9 C 78 % 1016,5 hPa 0,0 l/m 0 min 0 min 31 W/m 3,2 km/h (1 Bft) 97,83 %
23.08.2020 19:54 19,9 C 18,9 C 18,3 C 78 % 1016,6 hPa 0,0 l/m 0 min 0 min 29 W/m 0,0 km/h (0 Bft) 100,00 %
23.08.2020 19:56 19,9 C 18,9 C 18,3 C 78 % 1016,6 hPa 0,0 l/m 0 min 0 min 29 W/m 0,0 km/h (0 Bft) 97,87 %
23.08.2020 19:58 19,9 C 18,9 C 18,3 C 78 % 1016,6 hPa 0,0 l/m 0 min 0 min 26 W/m 3,2 km/h (1 Bft) 97,87 %
23.08.2020 20:00 19,9 C 18,3 C 18,3 C 78 % 1016,6 hPa 0,0 l/m 0 min 0 min 27 W/m 6,4 km/h (2 Bft) 97,87 %
23.08.2020 20:02 19,9 C 18,3 C 18,3 C 79 % 1016,6 hPa 0,0 l/m 0 min 0 min 29 W/m 9,7 km/h (2 Bft) 92,68 %
23.08.2020 20:04 19,8 C 18,3 C 18,3 C 79 % 1016,7 hPa 0,0 l/m 0 min 0 min 30 W/m 12,9 km/h (3 Bft) 97,87 %
23.08.2020 20:06 19,8 C 18,3 C 18,3 C 79 % 1016,7 hPa 0,0 l/m 0 min 0 min 26 W/m 9,7 km/h (2 Bft) 95,74 %
23.08.2020 20:08 19,8 C 18,3 C 18,3 C 79 % 1016,7 hPa 0,0 l/m 0 min 0 min 19 W/m 9,7 km/h (2 Bft) 94,92 %
23.08.2020 20:10 19,7 C 18,3 C 17,8 C 79 % 1016,7 hPa 0,0 l/m 0 min 0 min 15 W/m 0,0 km/h (0 Bft) 94,29 %
23.08.2020 20:12 19,7 C 18,3 C 17,8 C 79 % 1016,7 hPa 0,0 l/m 0 min 0 min 13 W/m 0,0 km/h (0 Bft) 95,74 %
23.08.2020 20:14 19,6 C 17,8 C 17,8 C 79 % 1016,7 hPa 0,0 l/m 0 min 0 min 11 W/m 3,2 km/h (1 Bft) 95,65 %
23.08.2020 20:16 19,6 C 17,8 C 17,8 C 80 % 1016,7 hPa 0,0 l/m 0 min 0 min 9 W/m 19,3 km/h (3 Bft) 91,49 %
23.08.2020 20:18 19,5 C 17,8 C 17,8 C 80 % 1016,6 hPa 0,0 l/m 0 min 0 min 9 W/m 0,0 km/h (0 Bft) 95,74 %
23.08.2020 20:20 19,4 C 17,8 C 17,8 C 80 % 1016,7 hPa 0,0 l/m 0 min 0 min 8 W/m 0,0 km/h (0 Bft) 97,87 %
23.08.2020 20:22 19,4 C 17,8 C 17,8 C 80 % 1016,8 hPa 0,0 l/m 0 min 0 min 7 W/m 3,2 km/h (1 Bft) 95,74 %
23.08.2020 20:24 19,4 C 17,8 C 17,8 C 80 % 1016,8 hPa 0,0 l/m 0 min 0 min 7 W/m 0,0 km/h (0 Bft) 95,74 %
23.08.2020 20:26 19,3 C 17,8 C 17,8 C 81 % 1016,8 hPa 0,0 l/m 0 min 0 min 4 W/m 0,0 km/h (0 Bft) 93,48 %
23.08.2020 20:28 19,3 C 17,8 C 17,8 C 81 % 1017,0 hPa 0,0 l/m 0 min 0 min 2 W/m 6,4 km/h (2 Bft) 93,22 %
23.08.2020 20:30 19,2 C 17,8 C 17,8 C 81 % 1017,0 hPa 0,0 l/m 0 min 0 min 5 W/m 6,4 km/h (2 Bft) 95,74 %
23.08.2020 20:32 19,2 C 17,8 C 17,8 C 81 % 1017,0 hPa 0,0 l/m 0 min 0 min 5 W/m 0,0 km/h (0 Bft) 97,87 %
23.08.2020 20:34 19,2 C 17,8 C 17,8 C 81 % 1017,1 hPa 0,0 l/m 0 min 0 min 3 W/m 0,0 km/h (0 Bft) 97,83 %
23.08.2020 20:36 19,2 C 17,8 C 17,2 C 82 % 1017,0 hPa 0,0 l/m 0 min 0 min 0 W/m 3,2 km/h (1 Bft) 95,74 %
23.08.2020 20:38 19,1 C 17,2 C 17,2 C 82 % 1017,1 hPa 0,0 l/m 0 min 0 min 0 W/m 3,2 km/h (1 Bft) 97,87 %
23.08.2020 20:40 19,1 C 17,2 C 17,2 C 82 % 1017,2 hPa 0,0 l/m 0 min 0 min 0 W/m 0,0 km/h (0 Bft) 93,62 %
23.08.2020 20:42 19,0 C 17,2 C 17,2 C 82 % 1017,1 hPa 0,0 l/m 0 min 0 min 0 W/m 0,0 km/h (0 Bft) 97,87 %
23.08.2020 20:44 19,0 C 17,2 C 17,2 C 82 % 1017,1 hPa 0,0 l/m 0 min 0 min 0 W/m 0,0 km/h (0 Bft) 97,87 %
23.08.2020 20:46 18,9 C 17,2 C 17,2 C 83 % 1017,2 hPa 0,0 l/m 0 min 0 min 0 W/m 0,0 km/h (0 Bft) 95,65 %
23.08.2020 20:48 18,9 C 17,2 C 17,2 C 83 % 1017,1 hPa 0,0 l/m 0 min 0 min 0 W/m 0,0 km/h (0 Bft) 95,74 %
23.08.2020 20:50 18,8 C 17,2 C 17,2 C 83 % 1017,2 hPa 0,0 l/m 0 min 0 min 0 W/m 0,0 km/h (0 Bft) 100,00 %
23.08.2020 20:52 18,8 C 17,2 C 17,2 C 83 % 1017,2 hPa 0,0 l/m 0 min 0 min 0 W/m 0,0 km/h (0 Bft) 100,00 %
23.08.2020 20:54 18,8 C 17,2 C 17,2 C 83 % 1017,2 hPa 0,0 l/m 0 min 0 min 0 W/m 0,0 km/h (0 Bft) 100,00 %
23.08.2020 20:56 18,7 C 17,2 C 17,2 C 83 % 1017,3 hPa 0,0 l/m 0 min 0 min 0 W/m 0,0 km/h (0 Bft) 100,00 %
23.08.2020 20:58 18,7 C 17,2 C 17,2 C 83 % 1017,2 hPa 0,0 l/m 0 min 0 min 0 W/m 3,2 km/h (1 Bft) 100,00 %
23.08.2020 21:00 18,7 C 17,2 C 17,2 C 83 % 1017,3 hPa 0,0 l/m 0 min 0 min 0 W/m 9,7 km/h (2 Bft) 97,87 %
23.08.2020 21:02 18,6 C 17,2 C 17,2 C 83 % 1017,3 hPa 0,0 l/m 0 min 0 min 0 W/m 0,0 km/h (0 Bft) 100,00 %
23.08.2020 21:04 18,6 C 17,2 C 17,2 C 83 % 1017,3 hPa 0,0 l/m 0 min 0 min 0 W/m 6,4 km/h (2 Bft) 100,00 %
23.08.2020 21:06 18,6 C 17,2 C 17,2 C 83 % 1017,3 hPa 0,0 l/m 0 min 0 min 0 W/m 9,7 km/h (2 Bft) 100,00 %
23.08.2020 21:08 18,5 C 17,2 C 17,2 C 84 % 1017,3 hPa 0,0 l/m 0 min 0 min 0 W/m 0,0 km/h (0 Bft) 100,00 %
23.08.2020 21:10 18,4 C 17,2 C 17,2 C 84 % 1017,3 hPa 0,0 l/m 0 min 0 min 0 W/m 16,1 km/h (3 Bft) 100,00 %
23.08.2020 21:12 18,4 C 17,2 C 17,2 C 84 % 1017,3 hPa 0,0 l/m 0 min 0 min 0 W/m 12,9 km/h (3 Bft) 100,00 %
23.08.2020 21:14 18,4 C 17,2 C 17,2 C 84 % 1017,3 hPa 0,0 l/m 0 min 0 min 0 W/m 3,2 km/h (1 Bft) 100,00 %
23.08.2020 21:16 18,3 C 17,2 C 17,2 C 84 % 1017,3 hPa 0,0 l/m 0 min 0 min 0 W/m 6,4 km/h (2 Bft) 100,00 %
23.08.2020 21:18 18,3 C 17,2 C 17,2 C 84 % 1017,3 hPa 0,0 l/m 0 min 0 min 0 W/m 3,2 km/h (1 Bft) 100,00 %
23.08.2020 21:20 18,3 C 17,2 C 17,2 C 84 % 1017,3 hPa 0,0 l/m 0 min 0 min 0 W/m 0,0 km/h (0 Bft) 100,00 %
23.08.2020 21:22 18,3 C 16,7 C 16,7 C 84 % 1017,3 hPa 0,0 l/m 0 min 0 min 0 W/m 3,2 km/h (1 Bft) 100,00 %
23.08.2020 21:24 18,3 C 16,7 C 16,7 C 84 % 1017,3 hPa 0,0 l/m 0 min 0 min 0 W/m 0,0 km/h (0 Bft) 100,00 %
23.08.2020 21:26 18,2 C 16,7 C 16,7 C 84 % 1017,3 hPa 0,0 l/m 0 min 0 min 0 W/m 0,0 km/h (0 Bft) 97,87 %
23.08.2020 21:28 18,2 C 16,7 C 16,7 C 84 % 1017,3 hPa 0,0 l/m 0 min 0 min 0 W/m 0,0 km/h (0 Bft) 100,00 %
23.08.2020 21:30 18,2 C 16,7 C 16,7 C 84 % 1017,3 hPa 0,0 l/m 0 min 0 min 0 W/m 3,2 km/h (1 Bft) 100,00 %
23.08.2020 21:32 18,2 C 16,7 C 16,7 C 85 % 1017,3 hPa 0,0 l/m 0 min 0 min 0 W/m 0,0 km/h (0 Bft) 100,00 %
23.08.2020 21:34 18,2 C 16,7 C 16,7 C 85 % 1017,3 hPa 0,0 l/m 0 min 0 min 0 W/m 0,0 km/h (0 Bft) 97,87 %
23.08.2020 21:36 18,2 C 16,7 C 16,7 C 85 % 1017,3 hPa 0,0 l/m 0 min 0 min 0 W/m 0,0 km/h (0 Bft) 97,83 %
23.08.2020 21:38 18,1 C 16,7 C 16,7 C 85 % 1017,4 hPa 0,0 l/m 0 min 0 min 0 W/m 0,0 km/h (0 Bft) 100,00 %
23.08.2020 21:40 18,1 C 16,7 C 16,7 C 85 % 1017,4 hPa 0,0 l/m 0 min 0 min 0 W/m 0,0 km/h (0 Bft) 98,00 %
23.08.2020 21:42 18,1 C 16,7 C 16,7 C 85 % 1017,4 hPa 0,0 l/m 0 min 0 min 0 W/m 0,0 km/h (0 Bft) 95,74 %
23.08.2020 21:44 18,1 C 16,7 C 16,7 C 85 % 1017,4 hPa 0,0 l/m 0 min 0 min 0 W/m 0,0 km/h (0 Bft) 97,87 %
23.08.2020 21:46 18,1 C 16,7 C 16,7 C 85 % 1017,4 hPa 0,0 l/m 0 min 0 min 0 W/m 0,0 km/h (0 Bft) 100,00 %
23.08.2020 21:48 18,1 C 16,7 C 16,7 C 85 % 1017,4 hPa 0,0 l/m 0 min 0 min 0 W/m 0,0 km/h (0 Bft) 100,00 %
23.08.2020 21:50 18,0 C 16,7 C 16,7 C 85 % 1017,4 hPa 0,0 l/m 0 min 0 min 0 W/m 0,0 km/h (0 Bft) 97,87 %
23.08.2020 21:52 18,0 C 16,7 C 16,7 C 86 % 1017,4 hPa 0,0 l/m 0 min 0 min 0 W/m 0,0 km/h (0 Bft) 97,87 %
23.08.2020 21:54 17,9 C 16,7 C 16,7 C 86 % 1017,4 hPa 0,0 l/m 0 min 0 min 0 W/m 0,0 km/h (0 Bft) 95,74 %
23.08.2020 21:56 17,9 C 16,1 C 16,7 C 86 % 1017,4 hPa 0,0 l/m 0 min 0 min 0 W/m 0,0 km/h (0 Bft) 97,87 %
23.08.2020 21:58 17,9 C 16,1 C 16,1 C 86 % 1017,4 hPa 0,0 l/m 0 min 0 min 0 W/m 6,4 km/h (2 Bft) 97,83 %
23.08.2020 22:00 17,9 C 16,1 C 16,1 C 86 % 1017,4 hPa 0,0 l/m 0 min 0 min 0 W/m 0,0 km/h (0 Bft) 97,87 %
23.08.2020 22:02 17,9 C 16,1 C 16,1 C 86 % 1017,4 hPa 0,0 l/m 0 min 0 min 0 W/m 0,0 km/h (0 Bft) 97,87 %
23.08.2020 22:04 17,8 C 16,1 C 16,1 C 86 % 1017,4 hPa 0,0 l/m 0 min 0 min 0 W/m 0,0 km/h (0 Bft) 97,87 %
23.08.2020 22:06 17,8 C 16,1 C 16,1 C 86 % 1017,4 hPa 0,0 l/m 0 min 0 min 0 W/m 0,0 km/h (0 Bft) 93,62 %
23.08.2020 22:08 17,8 C 15,6 C 16,1 C 86 % 1017,4 hPa 0,0 l/m 0 min 0 min 0 W/m 0,0 km/h (0 Bft) 97,87 %
23.08.2020 22:10 17,7 C 15,6 C 16,1 C 86 % 1017,4 hPa 0,0 l/m 0 min 0 min 0 W/m 3,2 km/h (1 Bft) 95,65 %
23.08.2020 22:12 17,7 C 15,6 C 16,1 C 86 % 1017,3 hPa 0,0 l/m 0 min 0 min 0 W/m 3,2 km/h (1 Bft) 97,87 %
23.08.2020 22:14 17,7 C 15,6 C 16,1 C 86 % 1017,3 hPa 0,0 l/m 0 min 0 min 0 W/m 0,0 km/h (0 Bft) 97,87 %
23.08.2020 22:16 17,6 C 15,6 C 16,1 C 86 % 1017,4 hPa 0,0 l/m 0 min 0 min 0 W/m 0,0 km/h (0 Bft) 97,87 %
23.08.2020 22:18 17,6 C 16,1 C 16,1 C 86 % 1017,3 hPa 0,0 l/m 0 min 0 min 0 W/m 0,0 km/h (0 Bft) 97,87 %
23.08.2020 22:20 17,6 C 15,6 C 16,1 C 86 % 1017,3 hPa 0,0 l/m 0 min 0 min 0 W/m 0,0 km/h (0 Bft) 97,87 %
23.08.2020 22:22 17,5 C 15,6 C 16,1 C 87 % 1017,4 hPa 0,0 l/m 0 min 0 min 0 W/m 0,0 km/h (0 Bft) 97,83 %
23.08.2020 22:24 17,5 C 15,6 C 15,6 C 87 % 1017,4 hPa 0,0 l/m 0 min 0 min 0 W/m 0,0 km/h (0 Bft) 97,87 %
23.08.2020 22:26 17,4 C 15,6 C 15,6 C 87 % 1017,3 hPa 0,0 l/m 0 min 0 min 0 W/m 3,2 km/h (1 Bft) 97,87 %
23.08.2020 22:28 17,4 C 15,6 C 15,6 C 87 % 1017,4 hPa 0,0 l/m 0 min 0 min 0 W/m 12,9 km/h (3 Bft) 100,00 %
23.08.2020 22:30 17,4 C 15,6 C 15,6 C 87 % 1017,3 hPa 0,0 l/m 0 min 0 min 0 W/m 3,2 km/h (1 Bft) 97,87 %
23.08.2020 22:32 17,3 C 15,6 C 15,6 C 87 % 1017,4 hPa 0,0 l/m 0 min 0 min 0 W/m 0,0 km/h (0 Bft) 97,83 %
23.08.2020 22:34 17,3 C 15,6 C 15,6 C 87 % 1017,4 hPa 0,0 l/m 0 min 0 min 0 W/m 0,0 km/h (0 Bft) 97,87 %
23.08.2020 22:36 17,3 C 15,6 C 15,6 C 87 % 1017,3 hPa 0,0 l/m 0 min 0 min 0 W/m 0,0 km/h (0 Bft) 97,87 %
23.08.2020 22:38 17,2 C 15,6 C 15,6 C 87 % 1017,4 hPa 0,0 l/m 0 min 0 min 0 W/m 0,0 km/h (0 Bft) 97,87 %
23.08.2020 22:40 17,2 C 15,6 C 15,6 C 88 % 1017,3 hPa 0,0 l/m 0 min 0 min 0 W/m 0,0 km/h (0 Bft) 97,87 %
23.08.2020 22:42 17,2 C 15,6 C 15,6 C 87 % 1017,3 hPa 0,0 l/m 0 min 0 min 0 W/m 0,0 km/h (0 Bft) 98,15 %
23.08.2020 22:44 17,1 C 15,6 C 15,6 C 87 % 1017,4 hPa 0,0 l/m 0 min 0 min 0 W/m 0,0 km/h (0 Bft) 100,00 %
23.08.2020 22:46 17,1 C 15,6 C 15,6 C 88 % 1017,3 hPa 0,0 l/m 0 min 0 min 0 W/m 0,0 km/h (0 Bft) 100,00 %
23.08.2020 22:48 17,1 C 15,6 C 15,6 C 88 % 1017,3 hPa 0,0 l/m 0 min 0 min 0 W/m 0,0 km/h (0 Bft) 97,87 %
23.08.2020 22:50 17,0 C 15,6 C 15,6 C 88 % 1017,3 hPa 0,0 l/m 0 min 0 min 0 W/m 0,0 km/h (0 Bft) 100,00 %
23.08.2020 22:52 17,0 C 15,6 C 15,6 C 88 % 1017,3 hPa 0,0 l/m 0 min 0 min 0 W/m 0,0 km/h (0 Bft) 97,87 %
23.08.2020 22:54 16,9 C 15,6 C 15,6 C 88 % 1017,3 hPa 0,0 l/m 0 min 0 min 0 W/m 0,0 km/h (0 Bft) 100,00 %
23.08.2020 22:56 16,9 C 15,6 C 15,6 C 88 % 1017,3 hPa 0,0 l/m 0 min 0 min 0 W/m 0,0 km/h (0 Bft) 97,87 %
23.08.2020 22:58 16,9 C 15,6 C 15,6 C 88 % 1017,3 hPa 0,0 l/m 0 min 0 min 0 W/m 0,0 km/h (0 Bft) 95,74 %
23.08.2020 23:00 16,9 C 15,6 C 15,6 C 88 % 1017,3 hPa 0,0 l/m 0 min 0 min 0 W/m 0,0 km/h (0 Bft) 95,74 %
23.08.2020 23:02 16,8 C 15,6 C 15,6 C 88 % 1017,3 hPa 0,0 l/m 0 min 0 min 0 W/m 0,0 km/h (0 Bft) 97,87 %
23.08.2020 23:04 16,8 C 15,6 C 15,6 C 88 % 1017,3 hPa 0,0 l/m 0 min 0 min 0 W/m 0,0 km/h (0 Bft) 95,74 %
23.08.2020 23:06 16,8 C 15,6 C 15,6 C 88 % 1017,3 hPa 0,0 l/m 0 min 0 min 0 W/m 0,0 km/h (0 Bft) 100,00 %
23.08.2020 23:08 16,8 C 15,6 C 15,6 C 88 % 1017,2 hPa 0,0 l/m 0 min 0 min 0 W/m 0,0 km/h (0 Bft) 97,87 %
23.08.2020 23:10 16,7 C 15,6 C 15,6 C 89 % 1017,2 hPa 0,0 l/m 0 min 0 min 0 W/m 0,0 km/h (0 Bft) 97,87 %
23.08.2020 23:12 16,7 C 15,6 C 15,6 C 89 % 1017,2 hPa 0,0 l/m 0 min 0 min 0 W/m 0,0 km/h (0 Bft) 97,87 %
23.08.2020 23:14 16,7 C 15,6 C 15,6 C 89 % 1017,3 hPa 0,0 l/m 0 min 0 min 0 W/m 0,0 km/h (0 Bft) 93,62 %
23.08.2020 23:16 16,7 C 15,6 C 15,6 C 89 % 1017,3 hPa 0,0 l/m 0 min 0 min 0 W/m 0,0 km/h (0 Bft) 95,74 %
23.08.2020 23:18 16,7 C 15,6 C 15,6 C 89 % 1017,4 hPa 0,0 l/m 0 min 0 min 0 W/m 0,0 km/h (0 Bft) 95,65 %
23.08.2020 23:20 16,7 C 15,6 C 15,6 C 89 % 1017,3 hPa 0,0 l/m 0 min 0 min 0 W/m 0,0 km/h (0 Bft) 95,74 %
23.08.2020 23:22 16,7 C 15,6 C 15,6 C 89 % 1017,3 hPa 0,0 l/m 0 min 0 min 0 W/m 0,0 km/h (0 Bft) 95,74 %
23.08.2020 23:24 16,7 C 15,6 C 15,6 C 89 % 1017,3 hPa 0,0 l/m 0 min 0 min 0 W/m 0,0 km/h (0 Bft) 93,62 %
23.08.2020 23:26 16,7 C 15,6 C 15,6 C 89 % 1017,2 hPa 0,0 l/m 0 min 0 min 0 W/m 0,0 km/h (0 Bft) 95,74 %
23.08.2020 23:28 16,7 C 15,6 C 15,6 C 90 % 1017,2 hPa 0,0 l/m 0 min 0 min 0 W/m 0,0 km/h (0 Bft) 95,65 %
23.08.2020 23:30 16,7 C 15,6 C 15,6 C 90 % 1017,3 hPa 0,0 l/m 0 min 0 min 0 W/m 0,0 km/h (0 Bft) 95,74 %
23.08.2020 23:32 16,7 C 15,6 C 15,6 C 90 % 1017,3 hPa 0,0 l/m 0 min 0 min 0 W/m 0,0 km/h (0 Bft) 97,22 %
23.08.2020 23:34 16,7 C 15,6 C 15,6 C 90 % 1017,2 hPa 0,0 l/m 0 min 0 min 0 W/m 0,0 km/h (0 Bft) 95,74 %
23.08.2020 23:36 16,7 C 15,6 C 15,6 C 90 % 1017,2 hPa 0,0 l/m 0 min 0 min 0 W/m 0,0 km/h (0 Bft) 91,49 %
23.08.2020 23:38 16,7 C 16,1 C 15,6 C 90 % 1017,1 hPa 0,0 l/m 0 min 0 min 0 W/m 12,9 km/h (3 Bft) 95,74 %
23.08.2020 23:40 16,7 C 16,1 C 15,6 C 90 % 1017,1 hPa 0,0 l/m 0 min 0 min 0 W/m 16,1 km/h (3 Bft) 95,74 %
23.08.2020 23:42 16,7 C 16,1 C 15,6 C 90 % 1017,0 hPa 0,0 l/m 0 min 0 min 0 W/m 0,0 km/h (0 Bft) 95,74 %
23.08.2020 23:44 16,7 C 15,6 C 15,6 C 90 % 1017,0 hPa 0,0 l/m 0 min 0 min 0 W/m 3,2 km/h (1 Bft) 97,83 %
23.08.2020 23:46 16,7 C 15,6 C 15,6 C 90 % 1017,1 hPa 0,0 l/m 0 min 0 min 0 W/m 0,0 km/h (0 Bft) 95,74 %
23.08.2020 23:48 16,7 C 15,6 C 15,6 C 90 % 1017,0 hPa 0,0 l/m 0 min 0 min 0 W/m 0,0 km/h (0 Bft) 97,87 %
23.08.2020 23:50 16,7 C 15,6 C 15,6 C 90 % 1017,0 hPa 0,0 l/m 0 min 0 min 0 W/m 3,2 km/h (1 Bft) 97,87 %
23.08.2020 23:52 16,7 C 15,6 C 15,6 C 90 % 1017,0 hPa 0,0 l/m 0 min 0 min 0 W/m 3,2 km/h (1 Bft) 97,87 %
23.08.2020 23:54 16,7 C 15,6 C 15,6 C 90 % 1017,1 hPa 0,0 l/m 0 min 0 min 0 W/m 3,2 km/h (1 Bft) 97,87 %
23.08.2020 23:56 16,7 C 16,1 C 15,6 C 90 % 1017,1 hPa 0,0 l/m 0 min 0 min 0 W/m 16,1 km/h (3 Bft) 97,83 %
23.08.2020 23:58 16,7 C 16,1 C 15,6 C 90 % 1017,1 hPa 0,0 l/m 0 min 0 min 0 W/m 0,0 km/h (0 Bft) 97,87 %
_ Min-Zeit 07:14 06:42 06:40 16:40 05:42 - - - - 00:02 00:12
Minimum _ 16,4 C 14,4 C 15,0 C 68 % 1015,2 hPa - - - - 0,0 km/h (0 Bft) 91,49 %
_ Max-Zeit 16:38 11:44 10:26 07:46 21:38 12:44 08:50 18:08 13:12 10:46 00:22
Maximum _ 22,1 C 25,6 C 25,6 C 90 % 1017,4 hPa 0,4 l/m 2 min 4 min 1060 W/m 35,4 km/h
SO (5 Bft)
100,00 %
Durchschnitt _ 18,7 C 18,4 C 17,7 C 79 % 1016,2 hPa #0,8 l/m #3:32 h #1:00 h 226 W/m 8,4 km/h (2 Bft) 97,57 %
© 2020 W. Hausmann